Time,TemperatureF,DewpointF,PressureIn,WindDirection,WindDirectionDegrees,WindSpeedMPH,WindSpeedGustMPH,Humidity,HourlyPrecipIn,Conditions,Clouds,dailyrainin,SoftwareType,DateUTC
2013-07-16 00:01:00,75.0,57.8,29.26,SSW,198,0.0,0.0,55,0.00,,,0.00,VWS V13.01,2013-07-16 05:01:00,
2013-07-16 00:06:00,74.8,65.6,29.26,East,79,0.0,0.0,73,0.00,,,0.00,VWS V13.01,2013-07-16 05:06:00,
2013-07-16 00:07:00,74.8,65.6,29.26,East,79,0.0,0.0,73,0.00,,,0.00,VWS V13.01,2013-07-16 05:07:00,
2013-07-16 00:11:00,74.7,65.4,29.26,East,79,0.0,0.0,73,0.00,,,0.00,VWS V13.01,2013-07-16 05:11:00,
2013-07-16 00:12:00,74.7,65.4,29.26,East,79,0.0,0.0,73,0.00,,,0.00,VWS V13.01,2013-07-16 05:12:00,
2013-07-16 00:16:00,74.5,65.3,29.26,ENE,77,0.0,0.0,73,0.00,,,0.00,VWS V13.01,2013-07-16 05:16:00,
2013-07-16 00:17:00,74.5,65.3,29.26,ENE,77,0.0,0.0,73,0.00,,,0.00,VWS V13.01,2013-07-16 05:17:00,
2013-07-16 00:21:00,74.3,65.1,29.26,ENE,77,0.0,0.0,73,0.00,,,0.00,VWS V13.01,2013-07-16 05:21:00,
2013-07-16 00:22:00,74.3,65.1,29.26,ENE,77,0.0,0.0,73,0.00,,,0.00,VWS V13.01,2013-07-16 05:22:00,
2013-07-16 00:26:00,74.1,69.3,29.26,ENE,77,0.0,0.0,85,0.00,,,0.00,VWS V13.01,2013-07-16 05:26:00,
2013-07-16 00:27:00,74.1,69.3,29.26,ENE,77,0.0,0.0,85,0.00,,,0.00,VWS V13.01,2013-07-16 05:27:00,
2013-07-16 00:31:00,74.1,69.3,29.26,East,86,0.0,0.0,85,0.00,,,0.00,VWS V13.01,2013-07-16 05:31:00,
2013-07-16 00:32:00,74.1,69.3,29.26,East,86,0.0,0.0,85,0.00,,,0.00,VWS V13.01,2013-07-16 05:32:00,
2013-07-16 00:36:00,74.1,69.3,29.26,SSW,203,0.0,0.0,85,0.00,,,0.00,VWS V13.01,2013-07-16 05:36:00,
2013-07-16 00:37:00,74.1,69.3,29.26,SSW,206,0.0,0.0,85,0.00,,,0.00,VWS V13.01,2013-07-16 05:37:00,
2013-07-16 00:38:00,74.1,69.3,29.26,SSW,206,0.0,0.0,85,0.00,,,0.00,VWS V13.01,2013-07-16 05:38:00,
2013-07-16 00:41:00,74.1,69.3,29.26,SW,217,0.0,0.0,85,0.00,,,0.00,VWS V13.01,2013-07-16 05:41:00,
2013-07-16 00:42:00,74.1,69.3,29.26,SW,217,0.0,0.0,85,0.00,,,0.00,VWS V13.01,2013-07-16 05:42:00,
2013-07-16 00:43:00,73.9,73.9,29.26,SSW,199,0.0,0.0,100,0.00,,,0.00,VWS V13.01,2013-07-16 05:43:00,
2013-07-16 00:46:00,74.1,74.1,29.26,South,181,0.0,0.0,100,0.00,,,0.00,VWS V13.01,2013-07-16 05:46:00,
2013-07-16 00:47:00,74.1,74.1,29.26,South,181,0.0,0.0,100,0.00,,,0.00,VWS V13.01,2013-07-16 05:47:00,
2013-07-16 00:48:00,73.9,73.9,29.26,SSE,167,0.0,0.0,100,0.00,,,0.00,VWS V13.01,2013-07-16 05:48:00,
2013-07-16 00:52:00,74.5,69.7,29.26,South,184,4.0,4.0,85,0.00,,,0.00,VWS V13.01,2013-07-16 05:52:00,
2013-07-16 00:53:00,74.5,69.7,29.26,South,185,4.5,4.5,85,0.00,,,0.00,VWS V13.01,2013-07-16 05:53:00,
2013-07-16 00:57:00,74.5,69.7,29.26,South,188,4.0,4.0,85,0.00,,,0.00,VWS V13.01,2013-07-16 05:57:00,
2013-07-16 00:58:00,74.5,69.7,29.26,South,183,3.1,3.1,85,0.00,,,0.00,VWS V13.01,2013-07-16 05:58:00,
2013-07-16 01:02:00,74.3,69.5,29.26,South,185,0.0,0.0,85,0.00,,,0.00,VWS V13.01,2013-07-16 06:02:00,
2013-07-16 01:03:00,74.3,69.5,29.26,SSW,194,0.0,0.0,85,0.00,,,0.00,VWS V13.01,2013-07-16 06:03:00,
2013-07-16 01:07:00,74.1,74.1,29.26,South,186,4.0,4.0,100,0.00,,,0.00,VWS V13.01,2013-07-16 06:07:00,
2013-07-16 01:08:00,74.1,74.1,29.26,SSE,167,0.0,0.0,100,0.00,,,0.00,VWS V13.01,2013-07-16 06:08:00,
2013-07-16 01:12:00,74.1,74.1,29.26,South,172,0.0,0.0,100,0.00,,,0.00,VWS V13.01,2013-07-16 06:12:00,
2013-07-16 01:13:00,74.1,74.1,29.26,SW,214,0.0,0.0,100,0.00,,,0.00,VWS V13.01,2013-07-16 06:13:00,
2013-07-16 01:17:00,74.1,74.1,29.26,South,185,0.0,0.0,100,0.00,,,0.00,VWS V13.01,2013-07-16 06:17:00,
2013-07-16 01:18:00,74.3,74.3,29.26,South,179,0.0,0.0,100,0.00,,,0.00,VWS V13.01,2013-07-16 06:18:00,
2013-07-16 01:22:00,74.5,69.7,29.26,South,183,2.7,2.7,85,0.00,,,0.00,VWS V13.01,2013-07-16 06:22:00,
2013-07-16 01:23:00,74.5,69.7,29.26,SSW,192,0.0,0.0,85,0.00,,,0.00,VWS V13.01,2013-07-16 06:23:00,
2013-07-16 01:27:00,74.3,74.3,29.26,South,187,0.0,0.0,100,0.00,,,0.00,VWS V13.01,2013-07-16 06:27:00,
2013-07-16 01:28:00,74.3,74.3,29.26,South,181,0.0,0.0,100,0.00,,,0.00,VWS V13.01,2013-07-16 06:28:00,
2013-07-16 01:32:00,74.1,74.1,29.26,South,181,0.0,0.0,100,0.00,,,0.00,VWS V13.01,2013-07-16 06:32:00,
2013-07-16 01:33:00,74.1,74.1,29.26,South,187,3.6,3.6,100,0.00,,,0.00,VWS V13.01,2013-07-16 06:33:00,
2013-07-16 01:37:00,74.1,74.1,29.26,SSW,194,0.0,0.0,100,0.00,,,0.00,VWS V13.01,2013-07-16 06:37:00,
2013-07-16 01:38:00,74.1,74.1,29.26,South,183,0.0,0.0,100,0.00,,,0.00,VWS V13.01,2013-07-16 06:38:00,
2013-07-16 01:42:00,74.1,74.1,29.26,South,190,0.0,0.0,100,0.00,,,0.00,VWS V13.01,2013-07-16 06:42:00,
2013-07-16 01:43:00,74.1,74.1,29.26,South,186,0.0,0.0,100,0.00,,,0.00,VWS V13.01,2013-07-16 06:43:00,
2013-07-16 01:44:00,74.1,74.1,29.26,South,186,0.0,0.0,100,0.00,,,0.00,VWS V13.01,2013-07-16 06:44:00,
2013-07-16 01:47:00,73.9,73.9,29.26,South,180,4.0,4.0,100,0.00,,,0.00,VWS V13.01,2013-07-16 06:47:00,
2013-07-16 01:48:00,73.9,73.9,29.26,South,183,4.0,4.0,100,0.00,,,0.00,VWS V13.01,2013-07-16 06:48:00,
2013-07-16 01:49:00,73.9,73.9,29.26,South,183,4.9,4.9,100,0.00,,,0.00,VWS V13.01,2013-07-16 06:49:00,
2013-07-16 01:52:00,73.8,73.8,29.26,South,185,3.1,3.1,100,0.00,,,0.00,VWS V13.01,2013-07-16 06:52:00,
2013-07-16 01:53:00,73.8,73.8,29.26,South,185,3.1,3.1,100,0.00,,,0.00,VWS V13.01,2013-07-16 06:53:00,
2013-07-16 01:54:00,73.8,73.8,29.26,South,185,3.6,3.6,100,0.00,,,0.00,VWS V13.01,2013-07-16 06:54:00,
2013-07-16 01:57:00,73.6,73.6,29.26,South,185,2.7,2.7,100,0.00,,,0.00,VWS V13.01,2013-07-16 06:57:00,
2013-07-16 01:58:00,73.6,73.6,29.26,South,185,3.1,3.1,100,0.00,,,0.00,VWS V13.01,2013-07-16 06:58:00,
2013-07-16 01:59:00,73.6,73.6,29.26,South,185,2.2,2.2,100,0.00,,,0.00,VWS V13.01,2013-07-16 06:59:00,
2013-07-16 02:02:00,73.6,73.6,29.26,South,185,2.7,2.7,100,0.00,,,0.00,VWS V13.01,2013-07-16 07:02:00,
2013-07-16 02:03:00,73.6,73.6,29.26,South,185,2.7,2.7,100,0.00,,,0.00,VWS V13.01,2013-07-16 07:03:00,
2013-07-16 02:04:00,73.6,73.6,29.26,South,185,0.0,0.0,100,0.00,,,0.00,VWS V13.01,2013-07-16 07:04:00,
2013-07-16 02:07:00,73.6,73.6,29.26,South,185,0.0,0.0,100,0.00,,,0.00,VWS V13.01,2013-07-16 07:07:00,
2013-07-16 02:08:00,73.6,73.6,29.26,South,185,0.0,0.0,100,0.00,,,0.00,VWS V13.01,2013-07-16 07:08:00,
2013-07-16 02:09:00,73.4,73.4,29.26,South,184,0.0,0.0,100,0.00,,,0.00,VWS V13.01,2013-07-16 07:09:00,
2013-07-16 02:13:00,73.4,73.4,29.26,South,186,2.7,2.7,100,0.00,,,0.00,VWS V13.01,2013-07-16 07:13:00,
2013-07-16 02:14:00,73.4,73.4,29.26,South,181,0.0,0.0,100,0.00,,,0.00,VWS V13.01,2013-07-16 07:14:00,
2013-07-16 02:17:00,73.2,73.2,29.26,South,186,0.0,0.0,100,0.00,,,0.00,VWS V13.01,2013-07-16 07:17:00,
2013-07-16 02:18:00,73.2,73.2,29.26,South,186,0.0,0.0,100,0.00,,,0.00,VWS V13.01,2013-07-16 07:18:00,
2013-07-16 02:19:00,73.2,73.2,29.26,South,186,0.0,0.0,100,0.00,,,0.00,VWS V13.01,2013-07-16 07:19:00,
2013-07-16 02:22:00,73.0,73.1,29.26,South,187,0.0,0.0,100,0.00,,,0.00,VWS V13.01,2013-07-16 07:22:00,
2013-07-16 02:23:00,73.0,73.1,29.26,South,187,0.0,0.0,100,0.00,,,0.00,VWS V13.01,2013-07-16 07:23:00,
2013-07-16 02:24:00,73.0,73.1,29.26,South,187,0.0,0.0,100,0.00,,,0.00,VWS V13.01,2013-07-16 07:24:00,
2013-07-16 02:28:00,73.0,73.1,29.26,South,190,2.2,2.2,100,0.00,,,0.00,VWS V13.01,2013-07-16 07:28:00,
2013-07-16 02:29:00,73.0,73.1,29.26,South,190,0.0,0.0,100,0.00,,,0.00,VWS V13.01,2013-07-16 07:29:00,
2013-07-16 02:33:00,73.0,73.1,29.26,South,183,0.0,0.0,100,0.00,,,0.00,VWS V13.01,2013-07-16 07:33:00,
2013-07-16 02:34:00,73.0,73.1,29.26,South,183,0.0,0.0,100,0.00,,,0.00,VWS V13.01,2013-07-16 07:34:00,
2013-07-16 02:38:00,72.9,72.9,29.26,South,184,0.0,0.0,100,0.00,,,0.00,VWS V13.01,2013-07-16 07:38:00,
2013-07-16 02:39:00,72.9,72.9,29.26,South,184,0.0,0.0,100,0.00,,,0.00,VWS V13.01,2013-07-16 07:39:00,
2013-07-16 02:43:00,72.7,72.7,29.26,South,184,0.0,0.0,100,0.00,,,0.00,VWS V13.01,2013-07-16 07:43:00,
2013-07-16 02:44:00,72.7,72.7,29.26,South,184,0.0,0.0,100,0.00,,,0.00,VWS V13.01,2013-07-16 07:44:00,
2013-07-16 02:48:00,72.9,72.9,29.26,South,184,0.0,0.0,100,0.00,,,0.00,VWS V13.01,2013-07-16 07:48:00,
2013-07-16 02:49:00,72.9,72.9,29.26,South,184,0.0,0.0,100,0.00,,,0.00,VWS V13.01,2013-07-16 07:49:00,
2013-07-16 02:50:00,72.9,72.9,29.26,South,184,0.0,0.0,100,0.00,,,0.00,VWS V13.01,2013-07-16 07:50:00,
2013-07-16 02:53:00,72.7,72.7,29.26,South,184,0.0,0.0,100,0.00,,,0.00,VWS V13.01,2013-07-16 07:53:00,
2013-07-16 02:54:00,72.5,72.5,29.26,South,184,0.0,0.0,100,0.00,,,0.00,VWS V13.01,2013-07-16 07:54:00,
2013-07-16 02:55:00,72.5,72.5,29.26,South,184,0.0,0.0,100,0.00,,,0.00,VWS V13.01,2013-07-16 07:55:00,
2013-07-16 02:58:00,72.1,72.2,29.26,South,184,0.0,0.0,100,0.00,,,0.00,VWS V13.01,2013-07-16 07:58:00,
2013-07-16 02:59:00,72.1,72.2,29.26,South,184,0.0,0.0,100,0.00,,,0.00,VWS V13.01,2013-07-16 07:59:00,
2013-07-16 03:00:00,72.1,72.2,29.26,South,184,0.0,0.0,100,0.00,,,0.00,VWS V13.01,2013-07-16 08:00:00,
2013-07-16 03:03:00,72.0,72.0,29.26,South,184,0.0,0.0,100,0.00,,,0.00,VWS V13.01,2013-07-16 08:03:00,
2013-07-16 03:04:00,72.0,72.0,29.26,South,184,0.0,0.0,100,0.00,,,0.00,VWS V13.01,2013-07-16 08:04:00,
2013-07-16 03:05:00,72.0,72.0,29.26,South,184,0.0,0.0,100,0.00,,,0.00,VWS V13.01,2013-07-16 08:05:00,
2013-07-16 03:08:00,72.0,72.0,29.26,South,184,0.0,0.0,100,0.00,,,0.00,VWS V13.01,2013-07-16 08:08:00,
2013-07-16 03:09:00,72.0,72.0,29.26,South,184,0.0,0.0,100,0.00,,,0.00,VWS V13.01,2013-07-16 08:09:00,
2013-07-16 03:10:00,72.0,72.0,29.26,South,184,0.0,0.0,100,0.00,,,0.00,VWS V13.01,2013-07-16 08:10:00,
2013-07-16 03:13:00,72.0,72.0,29.26,South,184,0.0,0.0,100,0.00,,,0.00,VWS V13.01,2013-07-16 08:13:00,
2013-07-16 03:14:00,72.0,72.0,29.26,South,184,0.0,0.0,100,0.00,,,0.00,VWS V13.01,2013-07-16 08:14:00,
2013-07-16 03:15:00,72.0,72.0,29.26,South,184,0.0,0.0,100,0.00,,,0.00,VWS V13.01,2013-07-16 08:15:00,
2013-07-16 03:18:00,72.0,72.0,29.26,South,184,0.0,0.0,100,0.00,,,0.00,VWS V13.01,2013-07-16 08:18:00,
2013-07-16 03:20:00,72.0,72.0,29.26,South,184,0.0,0.0,100,0.00,,,0.00,VWS V13.01,2013-07-16 08:20:00,
2013-07-16 03:23:00,71.8,71.8,29.26,South,184,0.0,0.0,100,0.00,,,0.00,VWS V13.01,2013-07-16 08:23:00,
2013-07-16 03:25:00,71.8,71.8,29.26,South,184,0.0,0.0,100,0.00,,,0.00,VWS V13.01,2013-07-16 08:25:00,
2013-07-16 03:28:00,72.0,72.0,29.26,South,184,0.0,0.0,100,0.00,,,0.00,VWS V13.01,2013-07-16 08:28:00,
2013-07-16 03:30:00,72.1,72.2,29.26,South,184,0.0,0.0,100,0.00,,,0.00,VWS V13.01,2013-07-16 08:30:00,
2013-07-16 03:33:00,72.3,72.3,29.26,South,184,0.0,0.0,100,0.00,,,0.00,VWS V13.01,2013-07-16 08:33:00,
2013-07-16 03:35:00,72.5,72.5,29.26,South,182,4.0,4.0,100,0.00,,,0.00,VWS V13.01,2013-07-16 08:35:00,
2013-07-16 03:38:00,72.5,72.5,29.26,South,183,4.9,4.9,100,0.00,,,0.00,VWS V13.01,2013-07-16 08:38:00,
2013-07-16 03:40:00,72.3,72.3,29.26,South,183,3.6,3.6,100,0.00,,,0.00,VWS V13.01,2013-07-16 08:40:00,
2013-07-16 03:43:00,72.3,72.3,29.26,South,190,4.0,4.0,100,0.00,,,0.00,VWS V13.01,2013-07-16 08:43:00,
2013-07-16 03:45:00,72.3,72.3,29.26,South,187,4.0,4.0,100,0.00,,,0.00,VWS V13.01,2013-07-16 08:45:00,
2013-07-16 03:48:00,72.3,72.3,29.26,South,186,4.0,4.0,100,0.00,,,0.00,VWS V13.01,2013-07-16 08:48:00,
2013-07-16 03:50:00,72.1,72.2,29.26,South,186,4.0,4.0,100,0.00,,,0.00,VWS V13.01,2013-07-16 08:50:00,
2013-07-16 03:51:00,72.1,72.2,29.26,South,186,4.0,4.0,100,0.00,,,0.00,VWS V13.01,2013-07-16 08:51:00,
2013-07-16 03:53:00,72.1,72.2,29.26,South,180,4.0,4.0,100,0.00,,,0.00,VWS V13.01,2013-07-16 08:53:00,
2013-07-16 03:55:00,72.3,72.3,29.26,South,186,4.0,4.0,100,0.00,,,0.00,VWS V13.01,2013-07-16 08:55:00,
2013-07-16 03:56:00,72.3,72.3,29.26,South,188,3.6,3.6,100,0.00,,,0.00,VWS V13.01,2013-07-16 08:56:00,
2013-07-16 03:58:00,72.3,72.3,29.26,South,187,4.9,4.9,100,0.00,,,0.00,VWS V13.01,2013-07-16 08:58:00,
2013-07-16 04:01:00,72.3,72.3,29.26,SSW,195,4.0,4.0,100,0.00,,,0.00,VWS V13.01,2013-07-16 09:01:00,
2013-07-16 04:03:00,72.3,72.3,29.26,SSW,195,4.0,4.0,100,0.00,,,0.00,VWS V13.01,2013-07-16 09:03:00,
2013-07-16 04:04:00,72.3,72.3,29.26,SSW,195,4.0,4.0,100,0.00,,,0.00,VWS V13.01,2013-07-16 09:04:00,
2013-07-16 04:06:00,72.3,72.3,29.26,SSW,195,4.0,4.0,100,0.00,,,0.00,VWS V13.01,2013-07-16 09:06:00,
2013-07-16 04:08:00,72.3,72.3,29.26,SSW,195,4.0,4.0,100,0.00,,,0.00,VWS V13.01,2013-07-16 09:08:00,
2013-07-16 04:09:00,72.3,72.3,29.26,SSW,195,3.1,3.1,100,0.00,,,0.00,VWS V13.01,2013-07-16 09:09:00,
2013-07-16 04:11:00,72.1,72.2,29.26,SSW,195,3.1,3.1,100,0.00,,,0.00,VWS V13.01,2013-07-16 09:11:00,
2013-07-16 04:13:00,72.1,72.2,29.26,SSW,195,4.0,4.0,100,0.00,,,0.00,VWS V13.01,2013-07-16 09:13:00,
2013-07-16 04:14:00,72.1,72.2,29.26,SSW,195,3.6,3.6,100,0.00,,,0.00,VWS V13.01,2013-07-16 09:14:00,
2013-07-16 04:16:00,72.1,72.2,29.26,SSW,195,3.6,3.6,100,0.00,,,0.00,VWS V13.01,2013-07-16 09:16:00,
2013-07-16 04:18:00,72.1,72.2,29.26,South,182,3.6,3.6,100,0.00,,,0.00,VWS V13.01,2013-07-16 09:18:00,
2013-07-16 04:19:00,72.1,72.2,29.26,South,182,3.1,3.1,100,0.00,,,0.00,VWS V13.01,2013-07-16 09:19:00,
2013-07-16 04:21:00,72.0,72.0,29.26,South,182,0.0,0.0,100,0.00,,,0.00,VWS V13.01,2013-07-16 09:21:00,
2013-07-16 04:23:00,71.8,71.8,29.26,South,182,0.0,0.0,100,0.00,,,0.00,VWS V13.01,2013-07-16 09:23:00,
2013-07-16 04:24:00,71.8,71.8,29.26,South,182,0.0,0.0,100,0.00,,,0.00,VWS V13.01,2013-07-16 09:24:00,
2013-07-16 04:26:00,71.8,71.8,29.26,South,182,0.0,0.0,100,0.00,,,0.00,VWS V13.01,2013-07-16 09:26:00,
2013-07-16 04:29:00,71.8,71.8,29.26,South,182,0.0,0.0,100,0.00,,,0.00,VWS V13.01,2013-07-16 09:29:00,
2013-07-16 04:31:00,71.6,71.6,29.26,South,182,0.0,0.0,100,0.00,,,0.00,VWS V13.01,2013-07-16 09:31:00,
2013-07-16 04:34:00,71.4,71.4,29.26,South,182,0.0,0.0,100,0.00,,,0.00,VWS V13.01,2013-07-16 09:34:00,
2013-07-16 04:36:00,71.2,71.2,29.26,South,182,0.0,0.0,100,0.00,,,0.00,VWS V13.01,2013-07-16 09:36:00,
2013-07-16 04:39:00,71.1,71.1,29.26,South,182,0.0,0.0,100,0.00,,,0.00,VWS V13.01,2013-07-16 09:39:00,
2013-07-16 04:41:00,71.1,71.1,29.29,South,182,0.0,0.0,100,0.00,,,0.00,VWS V13.01,2013-07-16 09:41:00,
2013-07-16 04:44:00,71.2,71.2,29.29,South,182,0.0,0.0,100,0.00,,,0.00,VWS V13.01,2013-07-16 09:44:00,
2013-07-16 04:46:00,71.2,71.2,29.29,South,182,0.0,0.0,100,0.00,,,0.00,VWS V13.01,2013-07-16 09:46:00,
2013-07-16 04:47:00,71.2,71.2,29.29,South,182,0.0,0.0,100,0.00,,,0.00,VWS V13.01,2013-07-16 09:47:00,
2013-07-16 04:49:00,71.2,71.2,29.29,South,182,0.0,0.0,100,0.00,,,0.00,VWS V13.01,2013-07-16 09:49:00,
2013-07-16 04:51:00,71.1,71.1,29.29,South,182,0.0,0.0,100,0.00,,,0.00,VWS V13.01,2013-07-16 09:51:00,
2013-07-16 04:52:00,70.9,70.9,29.29,South,182,0.0,0.0,100,0.00,,,0.00,VWS V13.01,2013-07-16 09:52:00,
2013-07-16 04:54:00,70.7,70.7,29.29,South,182,0.0,0.0,100,0.00,,,0.00,VWS V13.01,2013-07-16 09:54:00,
2013-07-16 04:56:00,70.5,70.5,29.29,South,182,0.0,0.0,100,0.00,,,0.00,VWS V13.01,2013-07-16 09:56:00,
2013-07-16 04:57:00,70.5,70.5,29.29,South,182,0.0,0.0,100,0.00,,,0.00,VWS V13.01,2013-07-16 09:57:00,
2013-07-16 04:59:00,70.5,70.5,29.29,South,182,0.0,0.0,100,0.00,,,0.00,VWS V13.01,2013-07-16 09:59:00,
2013-07-16 05:01:00,70.5,70.5,29.29,South,182,0.0,0.0,100,0.00,,,0.00,VWS V13.01,2013-07-16 10:01:00,
2013-07-16 05:02:00,70.5,70.5,29.29,South,182,0.0,0.0,100,0.00,,,0.00,VWS V13.01,2013-07-16 10:02:00,
2013-07-16 05:04:00,70.5,70.5,29.29,South,182,0.0,0.0,100,0.00,,,0.00,VWS V13.01,2013-07-16 10:04:00,
2013-07-16 05:07:00,70.5,70.5,29.29,South,182,0.0,0.0,100,0.00,,,0.00,VWS V13.01,2013-07-16 10:07:00,
2013-07-16 05:09:00,70.9,70.9,29.29,South,183,0.0,0.0,100,0.00,,,0.00,VWS V13.01,2013-07-16 10:09:00,
2013-07-16 05:12:00,70.9,70.9,29.29,South,183,0.0,0.0,100,0.00,,,0.00,VWS V13.01,2013-07-16 10:12:00,
2013-07-16 05:14:00,70.9,70.9,29.29,South,183,0.0,0.0,100,0.00,,,0.00,VWS V13.01,2013-07-16 10:14:00,
2013-07-16 05:17:00,71.1,71.1,29.29,South,183,0.0,0.0,100,0.00,,,0.00,VWS V13.01,2013-07-16 10:17:00,
2013-07-16 05:19:00,71.1,71.1,29.29,South,183,0.0,0.0,100,0.00,,,0.00,VWS V13.01,2013-07-16 10:19:00,
2013-07-16 05:20:00,71.1,71.1,29.29,South,183,0.0,0.0,100,0.00,,,0.00,VWS V13.01,2013-07-16 10:20:00,
2013-07-16 05:22:00,70.9,70.9,29.29,South,183,0.0,0.0,100,0.00,,,0.00,VWS V13.01,2013-07-16 10:22:00,
2013-07-16 05:24:00,70.9,70.9,29.29,South,183,0.0,0.0,100,0.00,,,0.00,VWS V13.01,2013-07-16 10:24:00,
2013-07-16 05:25:00,70.7,70.7,29.29,South,183,0.0,0.0,100,0.00,,,0.00,VWS V13.01,2013-07-16 10:25:00,
2013-07-16 05:27:00,70.7,70.7,29.29,South,183,0.0,0.0,100,0.00,,,0.00,VWS V13.01,2013-07-16 10:27:00,
2013-07-16 05:29:00,70.9,70.9,29.29,South,183,0.0,0.0,100,0.00,,,0.00,VWS V13.01,2013-07-16 10:29:00,
2013-07-16 05:30:00,70.9,70.9,29.29,South,183,0.0,0.0,100,0.00,,,0.00,VWS V13.01,2013-07-16 10:30:00,
2013-07-16 05:32:00,70.9,70.9,29.29,South,183,0.0,0.0,100,0.00,,,0.00,VWS V13.01,2013-07-16 10:32:00,
2013-07-16 05:33:00,70.9,70.9,29.29,South,183,0.0,0.0,100,0.00,,,0.00,VWS V13.01,2013-07-16 10:33:00,
2013-07-16 05:35:00,70.9,70.9,29.29,South,183,0.0,0.0,100,0.00,,,0.00,VWS V13.01,2013-07-16 10:35:00,
2013-07-16 05:37:00,70.7,70.7,29.29,South,183,0.0,0.0,100,0.00,,,0.00,VWS V13.01,2013-07-16 10:37:00,
2013-07-16 05:38:00,70.7,70.7,29.29,South,183,0.0,0.0,100,0.00,,,0.00,VWS V13.01,2013-07-16 10:38:00,
2013-07-16 05:40:00,70.7,70.7,29.29,South,182,0.0,0.0,100,0.00,,,0.00,VWS V13.01,2013-07-16 10:40:00,
2013-07-16 05:42:00,70.5,70.5,29.29,South,181,0.0,0.0,100,0.00,,,0.00,VWS V13.01,2013-07-16 10:42:00,
2013-07-16 05:43:00,70.5,70.5,29.29,South,179,0.0,0.0,100,0.00,,,0.00,VWS V13.01,2013-07-16 10:43:00,
2013-07-16 05:45:00,70.7,70.7,29.29,South,181,0.0,0.0,100,0.00,,,0.00,VWS V13.01,2013-07-16 10:45:00,
2013-07-16 05:47:00,70.7,70.7,29.29,South,181,0.0,0.0,100,0.00,,,0.00,VWS V13.01,2013-07-16 10:47:00,
2013-07-16 05:48:00,70.7,70.7,29.29,South,181,0.0,0.0,100,0.00,,,0.00,VWS V13.01,2013-07-16 10:48:00,
2013-07-16 05:50:00,70.7,70.7,29.29,South,181,0.0,0.0,100,0.00,,,0.00,VWS V13.01,2013-07-16 10:50:00,
2013-07-16 05:52:00,70.7,70.7,29.29,South,181,0.0,0.0,100,0.00,,,0.00,VWS V13.01,2013-07-16 10:52:00,
2013-07-16 05:53:00,70.7,70.7,29.29,South,181,0.0,0.0,100,0.00,,,0.00,VWS V13.01,2013-07-16 10:53:00,
2013-07-16 05:55:00,70.7,70.7,29.29,South,184,0.0,0.0,100,0.00,,,0.00,VWS V13.01,2013-07-16 10:55:00,
2013-07-16 05:57:00,70.7,70.7,29.29,South,184,0.0,0.0,100,0.00,,,0.00,VWS V13.01,2013-07-16 10:57:00,
2013-07-16 05:58:00,70.7,70.7,29.29,South,184,0.0,0.0,100,0.00,,,0.00,VWS V13.01,2013-07-16 10:58:00,
2013-07-16 06:00:00,70.5,70.5,29.29,South,184,0.0,0.0,100,0.00,,,0.00,VWS V13.01,2013-07-16 11:00:00,
2013-07-16 06:02:00,70.3,70.3,29.29,South,184,0.0,0.0,100,0.00,,,0.00,VWS V13.01,2013-07-16 11:02:00,
2013-07-16 06:03:00,70.3,70.3,29.29,South,184,0.0,0.0,100,0.00,,,0.00,VWS V13.01,2013-07-16 11:03:00,
2013-07-16 06:05:00,70.2,70.2,29.29,South,184,0.0,0.0,100,0.00,,,0.00,VWS V13.01,2013-07-16 11:05:00,
2013-07-16 06:07:00,70.0,70.0,29.29,South,184,0.0,0.0,100,0.00,,,0.00,VWS V13.01,2013-07-16 11:07:00,
2013-07-16 06:08:00,69.8,69.8,29.29,South,184,0.0,0.0,100,0.00,,,0.00,VWS V13.01,2013-07-16 11:08:00,
2013-07-16 06:10:00,69.8,69.8,29.29,South,184,0.0,0.0,100,0.00,,,0.00,VWS V13.01,2013-07-16 11:10:00,
2013-07-16 06:12:00,69.8,69.8,29.29,South,184,0.0,0.0,100,0.00,,,0.00,VWS V13.01,2013-07-16 11:12:00,
2013-07-16 06:13:00,69.6,69.6,29.29,South,184,0.0,0.0,100,0.00,,,0.00,VWS V13.01,2013-07-16 11:13:00,
2013-07-16 06:15:00,69.6,69.6,29.29,South,184,0.0,0.0,100,0.00,,,0.00,VWS V13.01,2013-07-16 11:15:00,
2013-07-16 06:17:00,69.6,69.6,29.29,South,184,0.0,0.0,100,0.00,,,0.00,VWS V13.01,2013-07-16 11:17:00,
2013-07-16 06:18:00,69.6,69.6,29.29,South,184,0.0,0.0,100,0.00,,,0.00,VWS V13.01,2013-07-16 11:18:00,
2013-07-16 06:20:00,69.8,69.8,29.29,South,169,0.0,0.0,100,0.00,,,0.00,VWS V13.01,2013-07-16 11:20:00,
2013-07-16 06:22:00,69.6,69.6,29.29,South,169,0.0,0.0,100,0.00,,,0.00,VWS V13.01,2013-07-16 11:22:00,
2013-07-16 06:23:00,69.6,69.6,29.29,South,169,0.0,0.0,100,0.00,,,0.00,VWS V13.01,2013-07-16 11:23:00,
2013-07-16 06:25:00,69.6,69.6,29.29,South,169,0.0,0.0,100,0.00,,,0.00,VWS V13.01,2013-07-16 11:25:00,
2013-07-16 06:27:00,69.8,69.8,29.29,South,169,0.0,0.0,100,0.00,,,0.00,VWS V13.01,2013-07-16 11:27:00,
2013-07-16 06:28:00,69.8,69.8,29.29,South,169,0.0,0.0,100,0.00,,,0.00,VWS V13.01,2013-07-16 11:28:00,
2013-07-16 06:30:00,69.8,69.8,29.29,South,169,0.0,0.0,100,0.00,,,0.00,VWS V13.01,2013-07-16 11:30:00,
2013-07-16 06:32:00,69.8,69.8,29.29,South,169,0.0,0.0,100,0.00,,,0.00,VWS V13.01,2013-07-16 11:32:00,
2013-07-16 06:33:00,69.8,69.8,29.29,South,169,0.0,0.0,100,0.00,,,0.00,VWS V13.01,2013-07-16 11:33:00,
2013-07-16 06:35:00,70.0,70.0,29.29,South,169,0.0,0.0,100,0.00,,,0.00,VWS V13.01,2013-07-16 11:35:00,
2013-07-16 06:38:00,70.5,70.5,29.29,South,169,0.0,0.0,100,0.00,,,0.00,VWS V13.01,2013-07-16 11:38:00,
2013-07-16 06:40:00,71.2,71.2,29.32,South,169,0.0,0.0,100,0.00,,,0.00,VWS V13.01,2013-07-16 11:40:00,
2013-07-16 06:43:00,71.2,71.2,29.32,South,169,0.0,0.0,100,0.00,,,0.00,VWS V13.01,2013-07-16 11:43:00,
2013-07-16 06:45:00,71.2,71.2,29.32,South,169,0.0,0.0,100,0.00,,,0.00,VWS V13.01,2013-07-16 11:45:00,
2013-07-16 06:46:00,71.2,71.2,29.32,South,169,0.0,0.0,100,0.00,,,0.00,VWS V13.01,2013-07-16 11:46:00,
2013-07-16 06:48:00,71.4,71.4,29.32,South,185,0.0,0.0,100,0.00,,,0.00,VWS V13.01,2013-07-16 11:48:00,
2013-07-16 06:50:00,72.3,72.3,29.32,South,185,0.0,0.0,100,0.00,,,0.00,VWS V13.01,2013-07-16 11:50:00,
2013-07-16 06:51:00,72.7,72.7,29.32,South,185,0.0,0.0,100,0.00,,,0.00,VWS V13.01,2013-07-16 11:51:00,
2013-07-16 06:53:00,73.2,73.2,29.32,South,185,0.0,0.0,100,0.00,,,0.00,VWS V13.01,2013-07-16 11:53:00,
2013-07-16 06:55:00,74.5,74.5,29.32,South,185,0.0,0.0,100,0.00,,,0.00,VWS V13.01,2013-07-16 11:55:00,
2013-07-16 06:56:00,74.7,74.7,29.32,South,185,0.0,0.0,100,0.00,,,0.00,VWS V13.01,2013-07-16 11:56:00,
2013-07-16 06:58:00,75.4,75.4,29.32,South,185,0.0,0.0,100,0.00,,,0.00,VWS V13.01,2013-07-16 11:58:00,
2013-07-16 07:00:00,76.1,76.1,29.32,South,184,0.0,0.0,100,0.00,,,0.00,VWS V13.01,2013-07-16 12:00:00,
2013-07-16 07:01:00,76.1,76.1,29.32,South,185,0.0,0.0,100,0.00,,,0.00,VWS V13.01,2013-07-16 12:01:00,
2013-07-16 07:03:00,76.5,76.5,29.32,South,185,0.0,0.0,100,0.00,,,0.00,VWS V13.01,2013-07-16 12:03:00,
2013-07-16 07:05:00,76.8,76.8,29.32,South,185,0.0,0.0,100,0.00,,,0.00,VWS V13.01,2013-07-16 12:05:00,
2013-07-16 07:06:00,77.0,77.0,29.32,South,185,0.0,0.0,100,0.00,,,0.00,VWS V13.01,2013-07-16 12:06:00,
2013-07-16 07:08:00,77.4,77.4,29.32,South,185,0.0,0.0,100,0.00,,,0.00,VWS V13.01,2013-07-16 12:08:00,
2013-07-16 07:10:00,77.5,76.6,29.32,South,185,0.0,0.0,97,0.00,,,0.00,VWS V13.01,2013-07-16 12:10:00,
2013-07-16 07:11:00,77.7,76.8,29.32,South,185,0.0,0.0,97,0.00,,,0.00,VWS V13.01,2013-07-16 12:11:00,
2013-07-16 07:13:00,77.9,77.0,29.32,South,191,0.0,0.0,97,0.00,,,0.00,VWS V13.01,2013-07-16 12:13:00,
2013-07-16 07:16:00,78.3,73.4,29.32,SSW,194,0.0,0.0,85,0.00,,,0.00,VWS V13.01,2013-07-16 12:16:00,
2013-07-16 07:18:00,78.1,73.2,29.32,SSW,192,0.0,0.0,85,0.00,,,0.00,VWS V13.01,2013-07-16 12:18:00,
2013-07-16 07:19:00,78.1,73.2,29.32,SSW,192,0.0,0.0,85,0.00,,,0.00,VWS V13.01,2013-07-16 12:19:00,
2013-07-16 07:21:00,77.9,73.0,29.32,SSW,192,0.0,0.0,85,0.00,,,0.00,VWS V13.01,2013-07-16 12:21:00,
2013-07-16 07:23:00,77.9,73.0,29.32,SSW,192,0.0,0.0,85,0.00,,,0.00,VWS V13.01,2013-07-16 12:23:00,
2013-07-16 07:24:00,77.9,73.0,29.32,SSW,192,0.0,0.0,85,0.00,,,0.00,VWS V13.01,2013-07-16 12:24:00,
2013-07-16 07:26:00,78.6,73.7,29.32,SSW,192,0.0,0.0,85,0.00,,,0.00,VWS V13.01,2013-07-16 12:26:00,
2013-07-16 07:27:00,79.2,67.3,29.32,SSW,192,0.0,0.0,67,0.00,,,0.00,VWS V13.01,2013-07-16 12:27:00,
2013-07-16 07:28:00,78.8,66.9,29.32,SSW,192,0.0,0.0,67,0.00,,,0.00,VWS V13.01,2013-07-16 12:28:00,
2013-07-16 07:29:00,78.8,66.9,29.32,SSW,192,0.0,0.0,67,0.00,,,0.00,VWS V13.01,2013-07-16 12:29:00,
2013-07-16 07:31:00,78.1,66.2,29.32,South,191,3.6,3.6,67,0.00,,,0.00,VWS V13.01,2013-07-16 12:31:00,
2013-07-16 07:32:00,79.0,67.1,29.32,South,191,0.0,0.0,67,0.00,,,0.00,VWS V13.01,2013-07-16 12:32:00,
2013-07-16 07:34:00,79.0,67.1,29.32,South,191,0.0,0.0,67,0.00,,,0.00,VWS V13.01,2013-07-16 12:34:00,
2013-07-16 07:36:00,79.5,67.6,29.32,South,191,0.0,0.0,67,0.00,,,0.00,VWS V13.01,2013-07-16 12:36:00,
2013-07-16 07:37:00,80.1,68.1,29.32,South,191,0.0,0.0,67,0.00,,,0.00,VWS V13.01,2013-07-16 12:37:00,
2013-07-16 07:39:00,80.2,68.3,29.32,South,191,0.0,0.0,67,0.00,,,0.00,VWS V13.01,2013-07-16 12:39:00,
2013-07-16 07:41:00,79.5,67.6,29.32,South,191,3.1,3.1,67,0.00,,,0.00,VWS V13.01,2013-07-16 12:41:00,
2013-07-16 07:42:00,79.7,67.8,29.32,South,191,3.1,3.1,67,0.00,,,0.00,VWS V13.01,2013-07-16 12:42:00,
2013-07-16 07:44:00,79.7,67.8,29.32,South,191,2.2,2.2,67,0.00,,,0.00,VWS V13.01,2013-07-16 12:44:00,
2013-07-16 07:46:00,80.8,66.1,29.32,South,191,0.0,0.0,61,0.00,,,0.00,VWS V13.01,2013-07-16 12:46:00,
2013-07-16 07:47:00,81.9,67.1,29.32,South,191,0.0,0.0,61,0.00,,,0.00,VWS V13.01,2013-07-16 12:47:00,
2013-07-16 07:49:00,82.2,67.4,29.32,South,191,0.0,0.0,61,0.00,,,0.00,VWS V13.01,2013-07-16 12:49:00,
2013-07-16 07:51:00,82.8,58.0,29.32,South,175,0.0,0.0,43,0.00,,,0.00,VWS V13.01,2013-07-16 12:51:00,
2013-07-16 07:52:00,82.9,58.2,29.32,South,176,0.0,0.0,43,0.00,,,0.00,VWS V13.01,2013-07-16 12:52:00,
2013-07-16 07:54:00,83.3,58.5,29.32,SSW,201,0.0,0.0,43,0.00,,,0.00,VWS V13.01,2013-07-16 12:54:00,
2013-07-16 07:56:00,82.9,58.2,29.32,SSW,201,0.0,0.0,43,0.00,,,0.00,VWS V13.01,2013-07-16 12:56:00,
2013-07-16 07:57:00,83.3,58.5,29.32,SSW,201,0.0,0.0,43,0.00,,,0.00,VWS V13.01,2013-07-16 12:57:00,
2013-07-16 07:59:00,82.9,58.2,29.32,SSW,201,0.0,0.0,43,0.00,,,0.00,VWS V13.01,2013-07-16 12:59:00,
2013-07-16 08:00:00,83.5,58.7,29.32,SSW,201,0.0,0.0,43,0.00,,,0.00,VWS V13.01,2013-07-16 13:00:00,
2013-07-16 08:01:00,82.9,58.2,29.32,South,169,3.1,3.1,43,0.00,,,0.00,VWS V13.01,2013-07-16 13:01:00,
2013-07-16 08:02:00,83.3,58.5,29.32,South,173,0.0,0.0,43,0.00,,,0.00,VWS V13.01,2013-07-16 13:02:00,
2013-07-16 08:04:00,81.5,60.5,29.32,South,188,4.0,4.0,49,0.00,,,0.00,VWS V13.01,2013-07-16 13:04:00,
2013-07-16 08:05:00,82.2,61.2,29.32,South,188,0.0,0.0,49,0.00,,,0.00,VWS V13.01,2013-07-16 13:05:00,
2013-07-16 08:06:00,82.0,61.0,29.32,South,188,3.6,3.6,49,0.00,,,0.00,VWS V13.01,2013-07-16 13:06:00,
2013-07-16 08:07:00,83.3,58.5,29.32,South,179,0.0,0.0,43,0.00,,,0.00,VWS V13.01,2013-07-16 13:07:00,
2013-07-16 08:09:00,82.2,61.2,29.32,South,184,4.0,4.0,49,0.00,,,0.00,VWS V13.01,2013-07-16 13:09:00,
2013-07-16 08:10:00,82.4,57.7,29.32,South,184,0.0,0.0,43,0.00,,,0.00,VWS V13.01,2013-07-16 13:10:00,
2013-07-16 08:11:00,82.4,57.7,29.32,South,185,5.8,5.8,43,0.00,,,0.00,VWS V13.01,2013-07-16 13:11:00,
2013-07-16 08:12:00,80.4,59.5,29.32,South,181,6.3,6.3,49,0.00,,,0.00,VWS V13.01,2013-07-16 13:12:00,
2013-07-16 08:14:00,81.5,60.5,29.32,South,175,0.0,0.0,49,0.00,,,0.00,VWS V13.01,2013-07-16 13:14:00,
2013-07-16 08:15:00,81.7,60.7,29.32,South,174,5.4,5.4,49,0.00,,,0.00,VWS V13.01,2013-07-16 13:15:00,
2013-07-16 08:16:00,80.4,68.5,29.32,South,190,6.3,6.3,67,0.00,,,0.00,VWS V13.01,2013-07-16 13:16:00,
2013-07-16 08:17:00,81.7,60.7,29.32,SSW,198,3.1,3.1,49,0.00,,,0.00,VWS V13.01,2013-07-16 13:17:00,
2013-07-16 08:19:00,82.6,57.8,29.32,South,186,5.8,5.8,43,0.00,,,0.00,VWS V13.01,2013-07-16 13:19:00,
2013-07-16 08:20:00,81.3,60.3,29.32,South,171,5.8,5.8,49,0.00,,,0.00,VWS V13.01,2013-07-16 13:20:00,
2013-07-16 08:21:00,82.8,58.0,29.32,South,184,0.0,0.0,43,0.00,,,0.00,VWS V13.01,2013-07-16 13:21:00,
2013-07-16 08:22:00,83.7,58.8,29.32,South,185,4.9,4.9,43,0.00,,,0.00,VWS V13.01,2013-07-16 13:22:00,
2013-07-16 08:24:00,82.4,57.7,29.32,South,182,4.0,4.0,43,0.00,,,0.00,VWS V13.01,2013-07-16 13:24:00,
2013-07-16 08:25:00,82.6,57.8,29.32,South,182,3.6,3.6,43,0.00,,,0.00,VWS V13.01,2013-07-16 13:25:00,
2013-07-16 08:26:00,82.4,57.7,29.32,South,182,4.9,4.9,43,0.00,,,0.00,VWS V13.01,2013-07-16 13:26:00,
2013-07-16 08:27:00,82.2,61.2,29.32,South,181,3.6,3.6,49,0.00,,,0.00,VWS V13.01,2013-07-16 13:27:00,
2013-07-16 08:29:00,81.0,60.0,29.32,South,185,6.3,6.3,49,0.00,,,0.00,VWS V13.01,2013-07-16 13:29:00,
2013-07-16 08:30:00,81.1,60.2,29.32,South,186,5.4,5.4,49,0.00,,,0.00,VWS V13.01,2013-07-16 13:30:00,
2013-07-16 08:31:00,81.5,60.5,29.32,South,185,6.3,6.3,49,0.00,,,0.00,VWS V13.01,2013-07-16 13:31:00,
2013-07-16 08:33:00,81.5,60.5,29.32,South,179,6.3,6.3,49,0.00,,,0.00,VWS V13.01,2013-07-16 13:33:00,
2013-07-16 08:34:00,80.8,66.1,29.32,South,180,6.3,6.3,61,0.00,,,0.00,VWS V13.01,2013-07-16 13:34:00,
2013-07-16 08:35:00,80.8,66.1,29.32,South,180,5.8,5.8,61,0.00,,,0.00,VWS V13.01,2013-07-16 13:35:00,
2013-07-16 08:36:00,81.7,60.7,29.32,South,183,6.3,6.3,49,0.00,,,0.00,VWS V13.01,2013-07-16 13:36:00,
2013-07-16 08:38:00,81.9,60.8,29.32,South,178,4.9,4.9,49,0.00,,,0.00,VWS V13.01,2013-07-16 13:38:00,
2013-07-16 08:39:00,81.7,60.7,29.35,South,181,6.3,6.3,49,0.00,,,0.00,VWS V13.01,2013-07-16 13:39:00,
2013-07-16 08:40:00,81.5,60.5,29.35,SSW,195,4.0,4.0,49,0.00,,,0.00,VWS V13.01,2013-07-16 13:40:00,
2013-07-16 08:41:00,82.0,61.0,29.35,South,188,5.4,5.4,49,0.00,,,0.00,VWS V13.01,2013-07-16 13:41:00,
2013-07-16 08:43:00,82.2,61.2,29.35,South,185,5.4,5.4,49,0.00,,,0.00,VWS V13.01,2013-07-16 13:43:00,
2013-07-16 08:44:00,82.2,61.2,29.35,South,188,7.6,7.6,49,0.00,,,0.00,VWS V13.01,2013-07-16 13:44:00,
2013-07-16 08:45:00,80.6,59.7,29.35,South,187,6.7,6.7,49,0.00,,,0.00,VWS V13.01,2013-07-16 13:45:00,
2013-07-16 08:46:00,80.8,59.9,29.35,South,190,6.3,6.3,49,0.00,,,0.00,VWS V13.01,2013-07-16 13:46:00,
2013-07-16 08:48:00,81.5,60.5,29.35,South,186,5.4,5.4,49,0.00,,,0.00,VWS V13.01,2013-07-16 13:48:00,
2013-07-16 08:49:00,81.9,60.8,29.35,South,182,6.3,6.3,49,0.00,,,0.00,VWS V13.01,2013-07-16 13:49:00,
2013-07-16 08:50:00,81.5,60.5,29.35,South,169,5.8,5.8,49,0.00,,,0.00,VWS V13.01,2013-07-16 13:50:00,
2013-07-16 08:51:00,81.7,60.7,29.35,South,179,7.6,7.6,49,0.00,,,0.00,VWS V13.01,2013-07-16 13:51:00,
2013-07-16 08:53:00,81.7,60.7,29.35,South,186,7.6,7.6,49,0.00,,,0.00,VWS V13.01,2013-07-16 13:53:00,
2013-07-16 08:54:00,81.7,60.7,29.35,South,175,5.8,5.8,49,0.00,,,0.00,VWS V13.01,2013-07-16 13:54:00,
2013-07-16 08:55:00,81.5,60.5,29.35,South,175,6.7,6.7,49,0.00,,,0.00,VWS V13.01,2013-07-16 13:55:00,
2013-07-16 08:56:00,81.3,60.3,29.35,South,190,5.8,5.8,49,0.00,,,0.00,VWS V13.01,2013-07-16 13:56:00,
2013-07-16 08:58:00,82.8,58.0,29.35,SSW,209,2.7,2.7,43,0.00,,,0.00,VWS V13.01,2013-07-16 13:58:00,
2013-07-16 08:59:00,84.0,59.1,29.35,South,177,5.4,5.4,43,0.00,,,0.00,VWS V13.01,2013-07-16 13:59:00,
2013-07-16 09:00:00,84.6,59.6,29.35,SSW,193,4.9,4.9,43,0.00,,,0.00,VWS V13.01,2013-07-16 14:00:00,
2013-07-16 09:01:00,84.2,59.3,29.35,South,176,7.6,7.6,43,0.00,,,0.00,VWS V13.01,2013-07-16 14:01:00,
2013-07-16 09:03:00,84.6,59.6,29.35,South,183,5.4,5.4,43,0.00,,,0.00,VWS V13.01,2013-07-16 14:03:00,
2013-07-16 09:04:00,84.4,59.5,29.35,South,183,5.8,5.8,43,0.00,,,0.00,VWS V13.01,2013-07-16 14:04:00,
2013-07-16 09:05:00,83.8,59.0,29.35,South,184,5.4,5.4,43,0.00,,,0.00,VWS V13.01,2013-07-16 14:05:00,
2013-07-16 09:06:00,83.8,59.0,29.35,South,184,5.8,5.8,43,0.00,,,0.00,VWS V13.01,2013-07-16 14:06:00,
2013-07-16 09:08:00,85.3,60.3,29.35,SSW,196,2.7,2.7,43,0.00,,,0.00,VWS V13.01,2013-07-16 14:08:00,
2013-07-16 09:09:00,86.2,61.1,29.35,SSW,193,5.8,5.8,43,0.00,,,0.00,VWS V13.01,2013-07-16 14:09:00,
2013-07-16 09:10:00,85.1,60.1,29.32,South,182,3.6,3.6,43,0.00,,,0.00,VWS V13.01,2013-07-16 14:10:00,
2013-07-16 09:11:00,85.1,60.1,29.32,South,176,3.6,3.6,43,0.00,,,0.00,VWS V13.01,2013-07-16 14:11:00,
2013-07-16 09:13:00,85.5,60.4,29.32,South,190,0.0,0.0,43,0.00,,,0.00,VWS V13.01,2013-07-16 14:13:00,
2013-07-16 09:15:00,84.0,59.1,29.32,South,176,5.8,5.8,43,0.00,,,0.00,VWS V13.01,2013-07-16 14:15:00,
2013-07-16 09:16:00,84.0,59.1,29.32,South,173,2.7,2.7,43,0.00,,,0.00,VWS V13.01,2013-07-16 14:16:00,
2013-07-16 09:18:00,84.9,60.0,29.32,South,189,6.3,6.3,43,0.00,,,0.00,VWS V13.01,2013-07-16 14:18:00,
2013-07-16 09:20:00,84.4,59.5,29.32,South,170,4.0,4.0,43,0.00,,,0.00,VWS V13.01,2013-07-16 14:20:00,
2013-07-16 09:21:00,85.3,60.3,29.32,South,182,4.0,4.0,43,0.00,,,0.00,VWS V13.01,2013-07-16 14:21:00,
2013-07-16 09:22:00,85.5,60.4,29.32,South,183,6.3,6.3,43,0.00,,,0.00,VWS V13.01,2013-07-16 14:22:00,
2013-07-16 09:23:00,85.3,60.3,29.32,South,182,6.3,6.3,43,0.00,,,0.00,VWS V13.01,2013-07-16 14:23:00,
2013-07-16 09:25:00,84.6,59.6,29.35,South,182,6.3,6.3,43,0.00,,,0.00,VWS V13.01,2013-07-16 14:25:00,
2013-07-16 09:26:00,84.6,59.6,29.35,South,178,3.1,3.1,43,0.00,,,0.00,VWS V13.01,2013-07-16 14:26:00,
2013-07-16 09:27:00,84.4,59.5,29.35,South,181,5.4,5.4,43,0.00,,,0.00,VWS V13.01,2013-07-16 14:27:00,
2013-07-16 09:28:00,85.1,60.1,29.35,South,190,4.9,4.9,43,0.00,,,0.00,VWS V13.01,2013-07-16 14:28:00,
2013-07-16 09:30:00,85.8,60.8,29.35,SSW,196,3.6,3.6,43,0.00,,,0.00,VWS V13.01,2013-07-16 14:30:00,
2013-07-16 09:31:00,85.8,60.8,29.35,South,191,5.4,5.4,43,0.00,,,0.00,VWS V13.01,2013-07-16 14:31:00,
2013-07-16 09:32:00,85.3,60.3,29.35,South,191,3.6,3.6,43,0.00,,,0.00,VWS V13.01,2013-07-16 14:32:00,
2013-07-16 09:33:00,85.3,60.3,29.35,South,190,6.3,6.3,43,0.00,,,0.00,VWS V13.01,2013-07-16 14:33:00,
2013-07-16 09:35:00,84.2,59.3,29.35,South,169,6.3,6.3,43,0.00,,,0.00,VWS V13.01,2013-07-16 14:35:00,
2013-07-16 09:36:00,84.4,59.5,29.35,South,178,4.9,4.9,43,0.00,,,0.00,VWS V13.01,2013-07-16 14:36:00,
2013-07-16 09:37:00,85.1,60.1,29.35,South,187,3.1,3.1,43,0.00,,,0.00,VWS V13.01,2013-07-16 14:37:00,
2013-07-16 09:38:00,85.5,60.4,29.35,South,183,5.8,5.8,43,0.00,,,0.00,VWS V13.01,2013-07-16 14:38:00,
2013-07-16 09:40:00,86.5,61.4,29.35,South,180,2.7,2.7,43,0.00,,,0.00,VWS V13.01,2013-07-16 14:40:00,
2013-07-16 09:41:00,86.7,61.6,29.35,South,180,4.0,4.0,43,0.00,,,0.00,VWS V13.01,2013-07-16 14:41:00,
2013-07-16 09:42:00,85.8,60.8,29.35,SSW,193,5.8,5.8,43,0.00,,,0.00,VWS V13.01,2013-07-16 14:42:00,
2013-07-16 09:43:00,86.4,61.2,29.35,South,180,5.8,5.8,43,0.00,,,0.00,VWS V13.01,2013-07-16 14:43:00,
2013-07-16 09:45:00,84.7,59.8,29.35,SSW,196,6.3,6.3,43,0.00,,,0.00,VWS V13.01,2013-07-16 14:45:00,
2013-07-16 09:46:00,84.7,59.8,29.35,South,187,7.6,7.6,43,0.00,,,0.00,VWS V13.01,2013-07-16 14:46:00,
2013-07-16 09:47:00,85.1,60.1,29.35,South,179,5.4,5.4,43,0.00,,,0.00,VWS V13.01,2013-07-16 14:47:00,
2013-07-16 09:48:00,86.0,60.9,29.35,SE,145,3.1,3.1,43,0.00,,,0.00,VWS V13.01,2013-07-16 14:48:00,
2013-07-16 09:50:00,87.1,61.9,29.35,South,182,8.1,8.1,43,0.00,,,0.00,VWS V13.01,2013-07-16 14:50:00,
2013-07-16 09:51:00,87.1,61.9,29.35,SSW,192,8.3,8.3,43,0.00,,,0.00,VWS V13.01,2013-07-16 14:51:00,
2013-07-16 09:52:00,85.5,60.4,29.35,South,186,6.3,6.3,43,0.00,,,0.00,VWS V13.01,2013-07-16 14:52:00,
2013-07-16 09:53:00,87.1,61.9,29.35,South,185,8.1,8.1,43,0.00,,,0.00,VWS V13.01,2013-07-16 14:53:00,
2013-07-16 09:55:00,83.8,59.0,29.35,South,187,7.6,7.6,43,0.00,,,0.00,VWS V13.01,2013-07-16 14:55:00,
2013-07-16 09:56:00,83.8,59.0,29.35,South,189,4.9,4.9,43,0.00,,,0.00,VWS V13.01,2013-07-16 14:56:00,
2013-07-16 09:57:00,85.1,60.1,29.35,South,184,5.8,5.8,43,0.00,,,0.00,VWS V13.01,2013-07-16 14:57:00,
2013-07-16 09:58:00,86.2,61.1,29.35,South,185,5.8,5.8,43,0.00,,,0.00,VWS V13.01,2013-07-16 14:58:00,
2013-07-16 10:00:00,86.5,61.4,29.35,SSW,207,6.3,6.3,43,0.00,,,0.00,VWS V13.01,2013-07-16 15:00:00,
2013-07-16 10:01:00,86.9,61.7,29.35,South,178,3.6,3.6,43,0.00,,,0.00,VWS V13.01,2013-07-16 15:01:00,
2013-07-16 10:02:00,87.1,61.9,29.35,South,170,3.6,3.6,43,0.00,,,0.00,VWS V13.01,2013-07-16 15:02:00,
2013-07-16 10:03:00,86.7,61.6,29.35,South,190,7.2,7.2,43,0.00,,,0.00,VWS V13.01,2013-07-16 15:03:00,
2013-07-16 10:06:00,86.7,61.6,29.35,South,179,5.4,5.4,43,0.00,,,0.00,VWS V13.01,2013-07-16 15:06:00,
2013-07-16 10:07:00,86.9,61.7,29.35,South,183,3.1,3.1,43,0.00,,,0.00,VWS V13.01,2013-07-16 15:07:00,
2013-07-16 10:08:00,87.8,58.3,29.35,South,183,5.8,5.8,37,0.00,,,0.00,VWS V13.01,2013-07-16 15:08:00,
2013-07-16 10:11:00,88.3,58.8,29.35,SSW,192,6.3,6.3,37,0.00,,,0.00,VWS V13.01,2013-07-16 15:11:00,
2013-07-16 10:12:00,87.3,62.1,29.35,South,183,4.9,4.9,43,0.00,,,0.00,VWS V13.01,2013-07-16 15:12:00,
2013-07-16 10:13:00,87.6,62.4,29.35,South,178,5.8,5.8,43,0.00,,,0.00,VWS V13.01,2013-07-16 15:13:00,
2013-07-16 10:16:00,87.3,62.1,29.35,SSW,193,5.8,5.8,43,0.00,,,0.00,VWS V13.01,2013-07-16 15:16:00,
2013-07-16 10:17:00,87.8,58.3,29.35,SSE,165,4.5,4.5,37,0.00,,,0.00,VWS V13.01,2013-07-16 15:17:00,
2013-07-16 10:19:00,89.4,59.7,29.35,SSW,204,0.0,0.0,37,0.00,,,0.00,VWS V13.01,2013-07-16 15:19:00,
2013-07-16 10:21:00,86.9,61.7,29.35,South,184,6.3,6.3,43,0.00,,,0.00,VWS V13.01,2013-07-16 15:21:00,
2013-07-16 10:22:00,87.1,61.9,29.35,South,177,6.3,6.3,43,0.00,,,0.00,VWS V13.01,2013-07-16 15:22:00,
2013-07-16 10:24:00,86.9,61.7,29.35,South,187,8.1,8.1,43,0.00,,,0.00,VWS V13.01,2013-07-16 15:24:00,
2013-07-16 10:26:00,87.6,62.4,29.32,SSW,194,4.9,4.9,43,0.00,,,0.00,VWS V13.01,2013-07-16 15:26:00,
2013-07-16 10:27:00,88.5,59.0,29.32,South,179,4.0,4.0,37,0.00,,,0.00,VWS V13.01,2013-07-16 15:27:00,
2013-07-16 10:29:00,89.8,60.1,29.32,South,179,5.8,5.8,37,0.00,,,0.00,VWS V13.01,2013-07-16 15:29:00,
2013-07-16 10:31:00,87.1,61.9,29.32,South,179,8.3,8.3,43,0.00,,,0.00,VWS V13.01,2013-07-16 15:31:00,
2013-07-16 10:32:00,88.2,58.6,29.32,South,178,7.6,7.6,37,0.00,,,0.00,VWS V13.01,2013-07-16 15:32:00,
2013-07-16 10:34:00,87.6,62.4,29.32,SSW,193,6.3,6.3,43,0.00,,,0.00,VWS V13.01,2013-07-16 15:34:00,
2013-07-16 10:36:00,88.9,59.3,29.32,SSW,204,4.0,4.0,37,0.00,,,0.00,VWS V13.01,2013-07-16 15:36:00,
2013-07-16 10:37:00,87.6,62.4,29.32,SSW,202,8.7,8.7,43,0.00,,,0.00,VWS V13.01,2013-07-16 15:37:00,
2013-07-16 10:39:00,87.6,62.4,29.32,SSW,211,4.0,4.0,43,0.00,,,0.00,VWS V13.01,2013-07-16 15:39:00,
2013-07-16 10:41:00,88.5,59.0,29.35,South,171,7.6,7.6,37,0.00,,,0.00,VWS V13.01,2013-07-16 15:41:00,
2013-07-16 10:42:00,87.1,61.9,29.35,SSW,193,7.6,7.6,43,0.00,,,0.00,VWS V13.01,2013-07-16 15:42:00,
2013-07-16 10:44:00,87.3,62.1,29.35,South,169,2.7,2.7,43,0.00,,,0.00,VWS V13.01,2013-07-16 15:44:00,
2013-07-16 10:46:00,89.2,59.6,29.35,South,185,7.6,7.6,37,0.00,,,0.00,VWS V13.01,2013-07-16 15:46:00,
2013-07-16 10:47:00,87.4,62.2,29.35,South,175,8.1,8.1,43,0.00,,,0.00,VWS V13.01,2013-07-16 15:47:00,
2013-07-16 10:49:00,88.7,59.1,29.35,South,179,8.1,8.1,37,0.00,,,0.00,VWS V13.01,2013-07-16 15:49:00,
2013-07-16 10:51:00,86.7,61.6,29.35,South,191,6.3,6.3,43,0.00,,,0.00,VWS V13.01,2013-07-16 15:51:00,
2013-07-16 10:52:00,86.4,61.2,29.35,South,185,4.9,4.9,43,0.00,,,0.00,VWS V13.01,2013-07-16 15:52:00,
2013-07-16 10:53:00,87.8,58.3,29.35,SSW,195,0.0,0.0,37,0.00,,,0.00,VWS V13.01,2013-07-16 15:53:00,
2013-07-16 10:54:00,88.7,59.1,29.35,South,190,7.2,7.2,37,0.00,,,0.00,VWS V13.01,2013-07-16 15:54:00,
2013-07-16 10:56:00,88.0,58.5,29.35,South,191,7.6,7.6,37,0.00,,,0.00,VWS V13.01,2013-07-16 15:56:00,
2013-07-16 10:57:00,88.2,58.6,29.35,SSW,194,4.0,4.0,37,0.00,,,0.00,VWS V13.01,2013-07-16 15:57:00,
2013-07-16 10:58:00,90.0,60.2,29.35,SSW,194,2.7,2.7,37,0.00,,,0.00,VWS V13.01,2013-07-16 15:58:00,
2013-07-16 10:59:00,91.0,61.2,29.35,South,174,7.6,7.6,37,0.00,,,0.00,VWS V13.01,2013-07-16 15:59:00,
2013-07-16 11:01:00,91.4,56.5,29.35,SSW,192,3.1,3.1,31,0.00,,,0.00,VWS V13.01,2013-07-16 16:01:00,
2013-07-16 11:02:00,88.9,59.3,29.35,South,180,5.4,5.4,37,0.00,,,0.00,VWS V13.01,2013-07-16 16:02:00,
2013-07-16 11:03:00,88.7,59.1,29.35,South,185,4.0,4.0,37,0.00,,,0.00,VWS V13.01,2013-07-16 16:03:00,
2013-07-16 11:04:00,89.2,59.6,29.35,SSW,192,3.1,3.1,37,0.00,,,0.00,VWS V13.01,2013-07-16 16:04:00,
2013-07-16 11:06:00,90.9,61.0,29.35,South,187,4.0,4.0,37,0.00,,,0.00,VWS V13.01,2013-07-16 16:06:00,
2013-07-16 11:07:00,91.2,61.3,29.35,South,175,4.9,4.9,37,0.00,,,0.00,VWS V13.01,2013-07-16 16:07:00,
2013-07-16 11:08:00,91.4,56.5,29.35,South,191,5.4,5.4,31,0.00,,,0.00,VWS V13.01,2013-07-16 16:08:00,
2013-07-16 11:09:00,91.6,56.7,29.35,South,189,3.1,3.1,31,0.00,,,0.00,VWS V13.01,2013-07-16 16:09:00,
2013-07-16 11:11:00,90.7,60.9,29.35,South,190,3.6,3.6,37,0.00,,,0.00,VWS V13.01,2013-07-16 16:11:00,
2013-07-16 11:12:00,90.7,60.9,29.35,South,190,3.6,3.6,37,0.00,,,0.00,VWS V13.01,2013-07-16 16:12:00,
2013-07-16 11:13:00,90.7,60.9,29.35,South,191,4.0,4.0,37,0.00,,,0.00,VWS V13.01,2013-07-16 16:13:00,
2013-07-16 11:14:00,93.4,58.2,29.35,South,189,0.0,0.0,31,0.00,,,0.00,VWS V13.01,2013-07-16 16:14:00,
2013-07-16 11:16:00,93.6,58.4,29.35,South,181,8.1,8.1,31,0.00,,,0.00,VWS V13.01,2013-07-16 16:16:00,
2013-07-16 11:17:00,93.6,58.4,29.35,South,191,5.8,5.8,31,0.00,,,0.00,VWS V13.01,2013-07-16 16:17:00,
2013-07-16 11:18:00,92.7,57.6,29.35,SE,146,3.6,3.6,31,0.00,,,0.00,VWS V13.01,2013-07-16 16:18:00,
2013-07-16 11:20:00,94.3,59.0,29.35,ENE,71,2.7,2.7,31,0.00,,,0.00,VWS V13.01,2013-07-16 16:20:00,
2013-07-16 11:21:00,95.9,60.4,29.35,SSW,200,3.1,3.1,31,0.00,,,0.00,VWS V13.01,2013-07-16 16:21:00,
2013-07-16 11:22:00,95.9,60.4,29.35,SSW,199,5.4,5.4,31,0.00,,,0.00,VWS V13.01,2013-07-16 16:22:00,
2013-07-16 11:23:00,95.7,60.3,29.35,SSE,162,4.0,4.0,31,0.00,,,0.00,VWS V13.01,2013-07-16 16:23:00,
2013-07-16 11:25:00,94.1,58.9,29.35,South,175,5.4,5.4,31,0.00,,,0.00,VWS V13.01,2013-07-16 16:25:00,
2013-07-16 11:26:00,95.2,59.8,29.35,SSW,194,0.0,0.0,31,0.00,,,0.00,VWS V13.01,2013-07-16 16:26:00,
2013-07-16 11:27:00,95.2,59.8,29.35,East,96,0.0,0.0,31,0.00,,,0.00,VWS V13.01,2013-07-16 16:27:00,
2013-07-16 11:28:00,96.1,60.6,29.35,South,191,4.0,4.0,31,0.00,,,0.00,VWS V13.01,2013-07-16 16:28:00,
2013-07-16 11:30:00,91.0,61.2,29.35,South,171,7.6,7.6,37,0.00,,,0.00,VWS V13.01,2013-07-16 16:30:00,
2013-07-16 11:31:00,89.4,59.7,29.35,South,180,5.4,5.4,37,0.00,,,0.00,VWS V13.01,2013-07-16 16:31:00,
2013-07-16 11:32:00,89.4,59.7,29.35,SSW,192,5.4,5.4,37,0.00,,,0.00,VWS V13.01,2013-07-16 16:32:00,
2013-07-16 11:33:00,87.8,58.3,29.35,South,188,5.4,5.4,37,0.00,,,0.00,VWS V13.01,2013-07-16 16:33:00,
2013-07-16 11:35:00,88.9,59.3,29.35,South,189,7.6,7.6,37,0.00,,,0.00,VWS V13.01,2013-07-16 16:35:00,
2013-07-16 11:36:00,89.4,59.7,29.35,South,184,5.8,5.8,37,0.00,,,0.00,VWS V13.01,2013-07-16 16:36:00,
2013-07-16 11:37:00,89.4,59.7,29.35,South,185,4.0,4.0,37,0.00,,,0.00,VWS V13.01,2013-07-16 16:37:00,
2013-07-16 11:38:00,89.8,60.1,29.35,South,189,5.4,5.4,37,0.00,,,0.00,VWS V13.01,2013-07-16 16:38:00,
2013-07-16 11:40:00,90.5,60.7,29.35,South,184,2.7,2.7,37,0.00,,,0.00,VWS V13.01,2013-07-16 16:40:00,
2013-07-16 11:42:00,91.4,56.5,29.35,SSW,193,6.3,6.3,31,0.00,,,0.00,VWS V13.01,2013-07-16 16:42:00,
2013-07-16 11:43:00,90.9,61.0,29.35,South,182,8.3,8.3,37,0.00,,,0.00,VWS V13.01,2013-07-16 16:43:00,
2013-07-16 11:45:00,91.0,61.2,29.35,SSW,200,5.8,5.8,37,0.00,,,0.00,VWS V13.01,2013-07-16 16:45:00,
2013-07-16 11:47:00,92.1,57.2,29.35,South,189,0.0,0.0,31,0.00,,,0.00,VWS V13.01,2013-07-16 16:47:00,
2013-07-16 11:48:00,93.2,58.1,29.35,SSW,200,6.3,6.3,31,0.00,,,0.00,VWS V13.01,2013-07-16 16:48:00,
2013-07-16 11:49:00,91.0,61.2,29.35,South,176,7.6,7.6,37,0.00,,,0.00,VWS V13.01,2013-07-16 16:49:00,
2013-07-16 11:50:00,90.7,60.9,29.35,South,186,6.3,6.3,37,0.00,,,0.00,VWS V13.01,2013-07-16 16:50:00,
2013-07-16 11:52:00,90.1,60.4,29.35,South,186,8.1,8.1,37,0.00,,,0.00,VWS V13.01,2013-07-16 16:52:00,
2013-07-16 11:53:00,89.8,60.1,29.35,South,185,5.8,5.8,37,0.00,,,0.00,VWS V13.01,2013-07-16 16:53:00,
2013-07-16 11:54:00,90.3,60.5,29.35,South,177,6.3,6.3,37,0.00,,,0.00,VWS V13.01,2013-07-16 16:54:00,
2013-07-16 11:55:00,90.1,60.4,29.35,South,187,5.8,5.8,37,0.00,,,0.00,VWS V13.01,2013-07-16 16:55:00,
2013-07-16 11:57:00,89.4,59.7,29.35,South,183,5.8,5.8,37,0.00,,,0.00,VWS V13.01,2013-07-16 16:57:00,
2013-07-16 11:58:00,90.0,60.2,29.35,South,187,8.3,8.3,37,0.00,,,0.00,VWS V13.01,2013-07-16 16:58:00,
2013-07-16 11:59:00,89.6,59.9,29.35,SSW,198,5.8,5.8,37,0.00,,,0.00,VWS V13.01,2013-07-16 16:59:00,
2013-07-16 12:00:00,90.7,60.9,29.35,South,180,8.3,8.3,37,0.00,,,0.00,VWS V13.01,2013-07-16 17:00:00,
2013-07-16 12:02:00,89.2,59.6,29.35,SSW,193,6.3,6.3,37,0.00,,,0.00,VWS V13.01,2013-07-16 17:02:00,
2013-07-16 12:03:00,88.7,59.1,29.35,South,186,5.8,5.8,37,0.00,,,0.00,VWS V13.01,2013-07-16 17:03:00,
2013-07-16 12:04:00,89.6,59.9,29.35,SSW,195,5.8,5.8,37,0.00,,,0.00,VWS V13.01,2013-07-16 17:04:00,
2013-07-16 12:05:00,90.7,60.9,29.35,South,182,5.8,5.8,37,0.00,,,0.00,VWS V13.01,2013-07-16 17:05:00,
2013-07-16 12:07:00,90.1,60.4,29.35,South,190,8.1,8.1,37,0.00,,,0.00,VWS V13.01,2013-07-16 17:07:00,
2013-07-16 12:08:00,89.8,60.1,29.35,SSW,194,6.3,6.3,37,0.00,,,0.00,VWS V13.01,2013-07-16 17:08:00,
2013-07-16 12:09:00,90.0,60.2,29.35,SSW,196,5.8,5.8,37,0.00,,,0.00,VWS V13.01,2013-07-16 17:09:00,
2013-07-16 12:10:00,92.1,57.2,29.35,ENE,66,0.0,0.0,31,0.00,,,0.00,VWS V13.01,2013-07-16 17:10:00,
2013-07-16 12:12:00,94.3,59.0,29.35,ENE,60,0.0,0.0,31,0.00,,,0.00,VWS V13.01,2013-07-16 17:12:00,
2013-07-16 12:13:00,94.6,59.3,29.35,North,11,5.4,5.4,31,0.00,,,0.00,VWS V13.01,2013-07-16 17:13:00,
2013-07-16 12:14:00,94.3,59.0,29.35,South,177,6.3,6.3,31,0.00,,,0.00,VWS V13.01,2013-07-16 17:14:00,
2013-07-16 12:15:00,93.4,58.2,29.35,SSW,197,5.8,5.8,31,0.00,,,0.00,VWS V13.01,2013-07-16 17:15:00,
2013-07-16 12:17:00,94.5,59.2,29.35,SSW,192,0.0,0.0,31,0.00,,,0.00,VWS V13.01,2013-07-16 17:17:00,
2013-07-16 12:18:00,94.8,59.5,29.35,South,179,3.6,3.6,31,0.00,,,0.00,VWS V13.01,2013-07-16 17:18:00,
2013-07-16 12:19:00,95.0,59.7,29.35,South,179,2.7,2.7,31,0.00,,,0.00,VWS V13.01,2013-07-16 17:19:00,
2013-07-16 12:20:00,96.4,60.9,29.35,ESE,103,0.0,0.0,31,0.00,,,0.00,VWS V13.01,2013-07-16 17:20:00,
2013-07-16 12:22:00,92.7,57.6,29.35,SE,127,2.7,2.7,31,0.00,,,0.00,VWS V13.01,2013-07-16 17:22:00,
2013-07-16 12:23:00,92.7,57.6,29.35,SSW,194,2.7,2.7,31,0.00,,,0.00,VWS V13.01,2013-07-16 17:23:00,
2013-07-16 12:24:00,92.1,57.2,29.35,South,180,5.4,5.4,31,0.00,,,0.00,VWS V13.01,2013-07-16 17:24:00,
2013-07-16 12:25:00,93.9,58.7,29.35,SSE,156,6.3,6.3,31,0.00,,,0.00,VWS V13.01,2013-07-16 17:25:00,
2013-07-16 12:27:00,93.9,58.7,29.35,East,81,5.8,5.8,31,0.00,,,0.00,VWS V13.01,2013-07-16 17:27:00,
2013-07-16 12:28:00,94.3,59.0,29.35,SSE,153,3.1,3.1,31,0.00,,,0.00,VWS V13.01,2013-07-16 17:28:00,
2013-07-16 12:29:00,95.0,59.7,29.35,South,179,2.2,2.2,31,0.00,,,0.00,VWS V13.01,2013-07-16 17:29:00,
2013-07-16 12:30:00,95.2,59.8,29.35,South,182,2.7,2.7,31,0.00,,,0.00,VWS V13.01,2013-07-16 17:30:00,
2013-07-16 12:32:00,97.5,55.8,29.35,South,182,0.0,0.0,25,0.00,,,0.00,VWS V13.01,2013-07-16 17:32:00,
2013-07-16 12:33:00,98.1,56.3,29.35,South,175,0.0,0.0,25,0.00,,,0.00,VWS V13.01,2013-07-16 17:33:00,
2013-07-16 12:34:00,98.8,56.9,29.35,South,170,2.7,2.7,25,0.00,,,0.00,VWS V13.01,2013-07-16 17:34:00,
2013-07-16 12:35:00,97.7,56.0,29.35,SW,220,0.0,0.0,25,0.00,,,0.00,VWS V13.01,2013-07-16 17:35:00,
2013-07-16 12:37:00,97.2,55.5,29.35,SSW,207,0.0,0.0,25,0.00,,,0.00,VWS V13.01,2013-07-16 17:37:00,
2013-07-16 12:38:00,94.3,59.0,29.35,South,184,7.2,7.2,31,0.00,,,0.00,VWS V13.01,2013-07-16 17:38:00,
2013-07-16 12:39:00,93.6,58.4,29.35,South,190,6.3,6.3,31,0.00,,,0.00,VWS V13.01,2013-07-16 17:39:00,
2013-07-16 12:40:00,90.5,60.7,29.35,South,189,7.6,7.6,37,0.00,,,0.00,VWS V13.01,2013-07-16 17:40:00,
2013-07-16 12:42:00,90.7,60.9,29.35,SSW,192,3.1,3.1,37,0.00,,,0.00,VWS V13.01,2013-07-16 17:42:00,
2013-07-16 12:43:00,91.2,61.3,29.35,SSW,192,2.2,2.2,37,0.00,,,0.00,VWS V13.01,2013-07-16 17:43:00,
2013-07-16 12:44:00,92.5,57.5,29.35,South,191,0.0,0.0,31,0.00,,,0.00,VWS V13.01,2013-07-16 17:44:00,
2013-07-16 12:45:00,93.7,58.6,29.35,South,191,0.0,0.0,31,0.00,,,0.00,VWS V13.01,2013-07-16 17:45:00,
2013-07-16 12:47:00,95.7,60.3,29.35,South,180,4.0,4.0,31,0.00,,,0.00,VWS V13.01,2013-07-16 17:47:00,
2013-07-16 12:48:00,94.6,59.3,29.35,South,181,8.1,8.1,31,0.00,,,0.00,VWS V13.01,2013-07-16 17:48:00,
2013-07-16 12:49:00,93.7,58.6,29.35,SSE,161,3.1,3.1,31,0.00,,,0.00,VWS V13.01,2013-07-16 17:49:00,
2013-07-16 12:50:00,93.2,58.1,29.35,South,178,5.8,5.8,31,0.00,,,0.00,VWS V13.01,2013-07-16 17:50:00,
2013-07-16 12:52:00,93.0,57.9,29.35,SSW,195,4.5,4.5,31,0.00,,,0.00,VWS V13.01,2013-07-16 17:52:00,
2013-07-16 12:53:00,93.7,58.6,29.35,SSW,198,6.7,6.7,31,0.00,,,0.00,VWS V13.01,2013-07-16 17:53:00,
2013-07-16 12:54:00,92.7,57.6,29.35,South,185,5.4,5.4,31,0.00,,,0.00,VWS V13.01,2013-07-16 17:54:00,
2013-07-16 12:56:00,92.3,57.3,29.35,South,189,5.4,5.4,31,0.00,,,0.00,VWS V13.01,2013-07-16 17:56:00,
2013-07-16 12:57:00,94.1,58.9,29.35,South,183,5.4,5.4,31,0.00,,,0.00,VWS V13.01,2013-07-16 17:57:00,
2013-07-16 12:58:00,94.3,59.0,29.35,SSW,194,5.4,5.4,31,0.00,,,0.00,VWS V13.01,2013-07-16 17:58:00,
2013-07-16 12:59:00,94.1,58.9,29.35,South,183,6.3,6.3,31,0.00,,,0.00,VWS V13.01,2013-07-16 17:59:00,
2013-07-16 13:01:00,91.4,56.5,29.35,SSW,192,8.3,8.3,31,0.00,,,0.00,VWS V13.01,2013-07-16 18:01:00,
2013-07-16 13:02:00,91.6,56.7,29.35,South,188,8.3,8.3,31,0.00,,,0.00,VWS V13.01,2013-07-16 18:02:00,
2013-07-16 13:03:00,92.3,57.3,29.35,South,180,5.4,5.4,31,0.00,,,0.00,VWS V13.01,2013-07-16 18:03:00,
2013-07-16 13:04:00,93.2,58.1,29.35,South,179,2.2,2.2,31,0.00,,,0.00,VWS V13.01,2013-07-16 18:04:00,
2013-07-16 13:06:00,94.6,59.3,29.35,South,178,3.6,3.6,31,0.00,,,0.00,VWS V13.01,2013-07-16 18:06:00,
2013-07-16 13:07:00,96.8,55.2,29.35,South,178,0.0,0.0,25,0.00,,,0.00,VWS V13.01,2013-07-16 18:07:00,
2013-07-16 13:08:00,97.3,55.7,29.35,South,172,0.0,0.0,25,0.00,,,0.00,VWS V13.01,2013-07-16 18:08:00,
2013-07-16 13:09:00,98.1,56.3,29.35,SE,129,0.0,0.0,25,0.00,,,0.00,VWS V13.01,2013-07-16 18:09:00,
2013-07-16 13:11:00,99.5,57.5,29.35,SE,143,3.1,3.1,25,0.00,,,0.00,VWS V13.01,2013-07-16 18:11:00,
2013-07-16 13:12:00,99.3,57.3,29.35,ESE,117,3.1,3.1,25,0.00,,,0.00,VWS V13.01,2013-07-16 18:12:00,
2013-07-16 13:13:00,98.8,56.9,29.35,SSW,194,3.1,3.1,25,0.00,,,0.00,VWS V13.01,2013-07-16 18:13:00,
2013-07-16 13:14:00,98.1,56.3,29.35,South,182,3.1,3.1,25,0.00,,,0.00,VWS V13.01,2013-07-16 18:14:00,
2013-07-16 13:16:00,98.1,56.3,29.35,South,187,3.6,3.6,25,0.00,,,0.00,VWS V13.01,2013-07-16 18:16:00,
2013-07-16 13:17:00,98.2,56.4,29.35,South,187,2.7,2.7,25,0.00,,,0.00,VWS V13.01,2013-07-16 18:17:00,
2013-07-16 13:18:00,97.9,56.1,29.35,South,184,5.4,5.4,25,0.00,,,0.00,VWS V13.01,2013-07-16 18:18:00,
2013-07-16 13:19:00,95.9,60.4,29.35,South,179,7.6,7.6,31,0.00,,,0.00,VWS V13.01,2013-07-16 18:19:00,
2013-07-16 13:21:00,94.3,59.0,29.35,SSW,193,7.6,7.6,31,0.00,,,0.00,VWS V13.01,2013-07-16 18:21:00,
2013-07-16 13:23:00,93.7,58.6,29.35,SSW,192,7.6,7.6,31,0.00,,,0.00,VWS V13.01,2013-07-16 18:23:00,
2013-07-16 13:24:00,93.0,57.9,29.35,South,173,7.6,7.6,31,0.00,,,0.00,VWS V13.01,2013-07-16 18:24:00,
2013-07-16 13:26:00,93.7,58.6,29.35,South,186,6.3,6.3,31,0.00,,,0.00,VWS V13.01,2013-07-16 18:26:00,
2013-07-16 13:28:00,95.2,59.8,29.35,South,179,5.8,5.8,31,0.00,,,0.00,VWS V13.01,2013-07-16 18:28:00,
2013-07-16 13:29:00,96.1,60.6,29.35,SSW,196,4.0,4.0,31,0.00,,,0.00,VWS V13.01,2013-07-16 18:29:00,
2013-07-16 13:31:00,98.1,56.3,29.35,SSE,168,0.0,0.0,25,0.00,,,0.00,VWS V13.01,2013-07-16 18:31:00,
2013-07-16 13:33:00,99.1,57.2,29.35,South,180,4.0,4.0,25,0.00,,,0.00,VWS V13.01,2013-07-16 18:33:00,
2013-07-16 13:34:00,96.4,60.9,29.35,South,185,7.6,7.6,31,0.00,,,0.00,VWS V13.01,2013-07-16 18:34:00,
2013-07-16 13:35:00,96.4,60.9,29.35,South,184,7.6,7.6,31,0.00,,,0.00,VWS V13.01,2013-07-16 18:35:00,
2013-07-16 13:36:00,95.4,60.0,29.35,South,183,5.8,5.8,31,0.00,,,0.00,VWS V13.01,2013-07-16 18:36:00,
2013-07-16 13:38:00,95.5,60.1,29.35,South,179,5.8,5.8,31,0.00,,,0.00,VWS V13.01,2013-07-16 18:38:00,
2013-07-16 13:39:00,96.3,60.7,29.35,South,180,7.2,7.2,31,0.00,,,0.00,VWS V13.01,2013-07-16 18:39:00,
2013-07-16 13:40:00,96.8,55.2,29.35,SSW,200,5.4,5.4,25,0.00,,,0.00,VWS V13.01,2013-07-16 18:40:00,
2013-07-16 13:41:00,95.4,60.0,29.35,South,177,7.6,7.6,31,0.00,,,0.00,VWS V13.01,2013-07-16 18:41:00,
2013-07-16 13:43:00,95.7,60.3,29.35,South,183,0.0,0.0,31,0.00,,,0.00,VWS V13.01,2013-07-16 18:43:00,
2013-07-16 13:44:00,98.1,56.3,29.35,South,183,0.0,0.0,25,0.00,,,0.00,VWS V13.01,2013-07-16 18:44:00,
2013-07-16 13:45:00,98.8,56.9,29.35,South,181,5.8,5.8,25,0.00,,,0.00,VWS V13.01,2013-07-16 18:45:00,
2013-07-16 13:46:00,96.6,61.0,29.35,SSE,155,8.1,8.1,31,0.00,,,0.00,VWS V13.01,2013-07-16 18:46:00,
2013-07-16 13:48:00,95.4,60.0,29.35,South,181,8.7,8.7,31,0.00,,,0.00,VWS V13.01,2013-07-16 18:48:00,
2013-07-16 13:49:00,95.7,60.3,29.35,South,188,5.8,5.8,31,0.00,,,0.00,VWS V13.01,2013-07-16 18:49:00,
2013-07-16 13:50:00,95.7,60.3,29.35,SSW,203,6.7,6.7,31,0.00,,,0.00,VWS V13.01,2013-07-16 18:50:00,
2013-07-16 13:51:00,94.5,59.2,29.35,SE,144,5.4,5.4,31,0.00,,,0.00,VWS V13.01,2013-07-16 18:51:00,
2013-07-16 13:53:00,95.0,59.7,29.35,South,172,7.2,7.2,31,0.00,,,0.00,VWS V13.01,2013-07-16 18:53:00,
2013-07-16 13:54:00,95.5,60.1,29.35,SSW,202,3.6,3.6,31,0.00,,,0.00,VWS V13.01,2013-07-16 18:54:00,
2013-07-16 13:55:00,96.4,60.9,29.35,SSW,194,2.7,2.7,31,0.00,,,0.00,VWS V13.01,2013-07-16 18:55:00,
2013-07-16 13:56:00,97.5,55.8,29.35,South,187,0.0,0.0,25,0.00,,,0.00,VWS V13.01,2013-07-16 18:56:00,
2013-07-16 13:58:00,97.5,55.8,29.35,SSW,194,5.8,5.8,25,0.00,,,0.00,VWS V13.01,2013-07-16 18:58:00,
2013-07-16 13:59:00,97.2,55.5,29.35,South,184,5.4,5.4,25,0.00,,,0.00,VWS V13.01,2013-07-16 18:59:00,
2013-07-16 14:00:00,96.8,55.2,29.35,SSE,151,4.9,4.9,25,0.00,,,0.00,VWS V13.01,2013-07-16 19:00:00,
2013-07-16 14:01:00,98.1,56.3,29.35,SSE,147,3.1,3.1,25,0.00,,,0.00,VWS V13.01,2013-07-16 19:01:00,
2013-07-16 14:03:00,99.1,57.2,29.35,SE,144,0.0,0.0,25,0.00,,,0.00,VWS V13.01,2013-07-16 19:03:00,
2013-07-16 14:04:00,99.3,57.3,29.35,South,173,0.0,0.0,25,0.00,,,0.00,VWS V13.01,2013-07-16 19:04:00,
2013-07-16 14:05:00,99.0,57.0,29.35,East,82,0.0,0.0,25,0.00,,,0.00,VWS V13.01,2013-07-16 19:05:00,
2013-07-16 14:06:00,93.0,57.9,29.35,South,184,5.4,5.4,31,0.00,,,0.00,VWS V13.01,2013-07-16 19:06:00,
2013-07-16 14:08:00,93.0,57.9,29.35,South,180,4.9,4.9,31,0.00,,,0.00,VWS V13.01,2013-07-16 19:08:00,
2013-07-16 14:09:00,95.2,59.8,29.35,South,181,0.0,0.0,31,0.00,,,0.00,VWS V13.01,2013-07-16 19:09:00,
2013-07-16 14:10:00,94.6,59.3,29.35,South,179,8.7,8.7,31,0.00,,,0.00,VWS V13.01,2013-07-16 19:10:00,
2013-07-16 14:11:00,94.5,59.2,29.35,South,184,6.3,6.3,31,0.00,,,0.00,VWS V13.01,2013-07-16 19:11:00,
2013-07-16 14:13:00,93.7,58.6,29.35,SSW,193,5.8,5.8,31,0.00,,,0.00,VWS V13.01,2013-07-16 19:13:00,
2013-07-16 14:14:00,94.5,59.2,29.35,South,177,7.6,7.6,31,0.00,,,0.00,VWS V13.01,2013-07-16 19:14:00,
2013-07-16 14:15:00,95.0,59.7,29.35,South,178,8.3,8.3,31,0.00,,,0.00,VWS V13.01,2013-07-16 19:15:00,
2013-07-16 14:16:00,94.5,59.2,29.35,South,187,2.2,2.2,31,0.00,,,0.00,VWS V13.01,2013-07-16 19:16:00,
2013-07-16 14:18:00,95.2,59.8,29.35,South,183,0.0,0.0,31,0.00,,,0.00,VWS V13.01,2013-07-16 19:18:00,
2013-07-16 14:19:00,96.3,60.7,29.35,SSW,193,0.0,0.0,31,0.00,,,0.00,VWS V13.01,2013-07-16 19:19:00,
2013-07-16 14:20:00,96.3,60.7,29.35,SSW,195,0.0,0.0,31,0.00,,,0.00,VWS V13.01,2013-07-16 19:20:00,
2013-07-16 14:21:00,93.9,58.7,29.35,South,185,4.0,4.0,31,0.00,,,0.00,VWS V13.01,2013-07-16 19:21:00,
2013-07-16 14:23:00,94.1,58.9,29.35,SSW,192,3.6,3.6,31,0.00,,,0.00,VWS V13.01,2013-07-16 19:23:00,
2013-07-16 14:24:00,93.4,58.2,29.35,SSE,165,6.3,6.3,31,0.00,,,0.00,VWS V13.01,2013-07-16 19:24:00,
2013-07-16 14:25:00,93.4,58.2,29.32,South,189,6.3,6.3,31,0.00,,,0.00,VWS V13.01,2013-07-16 19:25:00,
2013-07-16 14:27:00,92.5,57.5,29.32,SSW,199,8.3,8.3,31,0.00,,,0.00,VWS V13.01,2013-07-16 19:27:00,
2013-07-16 14:28:00,92.7,57.6,29.32,South,174,4.9,4.9,31,0.00,,,0.00,VWS V13.01,2013-07-16 19:28:00,
2013-07-16 14:29:00,91.9,57.0,29.32,SSW,192,6.3,6.3,31,0.00,,,0.00,VWS V13.01,2013-07-16 19:29:00,
2013-07-16 14:30:00,91.9,57.0,29.32,South,189,7.6,7.6,31,0.00,,,0.00,VWS V13.01,2013-07-16 19:30:00,
2013-07-16 14:32:00,92.3,57.3,29.32,WSW,253,0.0,0.0,31,0.00,,,0.00,VWS V13.01,2013-07-16 19:32:00,
2013-07-16 14:33:00,93.0,57.9,29.32,WNW,300,3.6,3.6,31,0.00,,,0.00,VWS V13.01,2013-07-16 19:33:00,
2013-07-16 14:34:00,93.6,58.4,29.32,South,170,4.9,4.9,31,0.00,,,0.00,VWS V13.01,2013-07-16 19:34:00,
2013-07-16 14:35:00,93.7,58.6,29.32,SW,229,3.6,3.6,31,0.00,,,0.00,VWS V13.01,2013-07-16 19:35:00,
2013-07-16 14:37:00,93.9,58.7,29.32,South,189,4.0,4.0,31,0.00,,,0.00,VWS V13.01,2013-07-16 19:37:00,
2013-07-16 14:38:00,93.9,58.7,29.32,South,183,5.8,5.8,31,0.00,,,0.00,VWS V13.01,2013-07-16 19:38:00,
2013-07-16 14:39:00,92.7,57.6,29.32,South,175,8.3,8.3,31,0.00,,,0.00,VWS V13.01,2013-07-16 19:39:00,
2013-07-16 14:40:00,92.5,57.5,29.32,SSW,203,8.1,8.1,31,0.00,,,0.00,VWS V13.01,2013-07-16 19:40:00,
2013-07-16 14:41:00,92.1,57.2,29.32,South,184,7.6,7.6,31,0.00,,,0.00,VWS V13.01,2013-07-16 19:41:00,
2013-07-16 14:42:00,92.1,57.2,29.32,South,178,4.0,4.0,31,0.00,,,0.00,VWS V13.01,2013-07-16 19:42:00,
2013-07-16 14:43:00,92.1,57.2,29.32,South,188,4.0,4.0,31,0.00,,,0.00,VWS V13.01,2013-07-16 19:43:00,
2013-07-16 14:44:00,92.5,57.5,29.32,SSW,195,3.1,3.1,31,0.00,,,0.00,VWS V13.01,2013-07-16 19:44:00,
2013-07-16 14:45:00,92.7,57.6,29.32,WSW,243,3.6,3.6,31,0.00,,,0.00,VWS V13.01,2013-07-16 19:45:00,
2013-07-16 14:46:00,92.7,57.6,29.32,South,186,5.8,5.8,31,0.00,,,0.00,VWS V13.01,2013-07-16 19:46:00,
2013-07-16 14:47:00,92.8,57.8,29.32,South,178,4.0,4.0,31,0.00,,,0.00,VWS V13.01,2013-07-16 19:47:00,
2013-07-16 14:49:00,93.2,58.1,29.32,SSW,196,5.4,5.4,31,0.00,,,0.00,VWS V13.01,2013-07-16 19:49:00,
2013-07-16 14:50:00,92.5,57.5,29.32,SSE,161,3.1,3.1,31,0.00,,,0.00,VWS V13.01,2013-07-16 19:50:00,
2013-07-16 14:51:00,93.0,57.9,29.32,SSW,192,10.1,10.1,31,0.00,,,0.00,VWS V13.01,2013-07-16 19:51:00,
2013-07-16 14:52:00,91.9,57.0,29.32,South,191,10.5,10.5,31,0.00,,,0.00,VWS V13.01,2013-07-16 19:52:00,
2013-07-16 14:54:00,91.0,61.2,29.32,SSW,211,7.6,7.6,37,0.00,,,0.00,VWS V13.01,2013-07-16 19:54:00,
2013-07-16 14:55:00,90.9,61.0,29.32,South,187,4.9,4.9,37,0.00,,,0.00,VWS V13.01,2013-07-16 19:55:00,
2013-07-16 14:56:00,91.4,56.5,29.32,SSW,210,3.6,3.6,31,0.00,,,0.00,VWS V13.01,2013-07-16 19:56:00,
2013-07-16 14:57:00,91.6,56.7,29.32,South,177,2.7,2.7,31,0.00,,,0.00,VWS V13.01,2013-07-16 19:57:00,
2013-07-16 14:59:00,91.6,56.7,29.32,South,177,5.4,5.4,31,0.00,,,0.00,VWS V13.01,2013-07-16 19:59:00,
2013-07-16 15:00:00,91.9,57.0,29.32,SSW,194,6.3,6.3,31,0.00,,,0.00,VWS V13.01,2013-07-16 20:00:00,
2013-07-16 15:01:00,91.8,56.9,29.32,South,191,3.6,3.6,31,0.00,,,0.00,VWS V13.01,2013-07-16 20:01:00,
2013-07-16 15:02:00,91.9,57.0,29.32,South,170,3.1,3.1,31,0.00,,,0.00,VWS V13.01,2013-07-16 20:02:00,
2013-07-16 15:04:00,91.9,57.0,29.32,SSW,207,3.1,3.1,31,0.00,,,0.00,VWS V13.01,2013-07-16 20:04:00,
2013-07-16 15:05:00,92.1,57.2,29.32,SSW,192,5.4,5.4,31,0.00,,,0.00,VWS V13.01,2013-07-16 20:05:00,
2013-07-16 15:06:00,91.4,56.5,29.32,South,181,8.3,8.3,31,0.00,,,0.00,VWS V13.01,2013-07-16 20:06:00,
2013-07-16 15:07:00,91.4,56.5,29.32,South,179,8.7,8.7,31,0.00,,,0.00,VWS V13.01,2013-07-16 20:07:00,
2013-07-16 15:09:00,91.0,61.2,29.32,South,184,8.3,8.3,37,0.00,,,0.00,VWS V13.01,2013-07-16 20:09:00,
2013-07-16 15:10:00,91.2,61.3,29.32,South,183,8.7,8.7,37,0.00,,,0.00,VWS V13.01,2013-07-16 20:10:00,
2013-07-16 15:11:00,91.2,61.3,29.32,South,181,5.4,5.4,37,0.00,,,0.00,VWS V13.01,2013-07-16 20:11:00,
2013-07-16 15:12:00,91.2,61.3,29.32,South,177,8.7,8.7,37,0.00,,,0.00,VWS V13.01,2013-07-16 20:12:00,
2013-07-16 15:14:00,90.9,61.0,29.32,South,177,4.0,4.0,37,0.00,,,0.00,VWS V13.01,2013-07-16 20:14:00,
2013-07-16 15:15:00,91.4,56.5,29.32,SSW,197,0.0,0.0,31,0.00,,,0.00,VWS V13.01,2013-07-16 20:15:00,
2013-07-16 15:16:00,91.8,56.9,29.32,South,180,8.3,8.3,31,0.00,,,0.00,VWS V13.01,2013-07-16 20:16:00,
2013-07-16 15:17:00,91.2,61.3,29.32,South,177,8.1,8.1,37,0.00,,,0.00,VWS V13.01,2013-07-16 20:17:00,
2013-07-16 15:19:00,91.8,56.9,29.32,SSW,200,0.0,0.0,31,0.00,,,0.00,VWS V13.01,2013-07-16 20:19:00,
2013-07-16 15:20:00,91.4,56.5,29.32,South,189,6.3,6.3,31,0.00,,,0.00,VWS V13.01,2013-07-16 20:20:00,
2013-07-16 15:21:00,91.6,56.7,29.32,South,178,5.4,5.4,31,0.00,,,0.00,VWS V13.01,2013-07-16 20:21:00,
2013-07-16 15:22:00,91.8,56.9,29.32,South,177,2.7,2.7,31,0.00,,,0.00,VWS V13.01,2013-07-16 20:22:00,
2013-07-16 15:24:00,92.5,57.5,29.32,East,98,0.0,0.0,31,0.00,,,0.00,VWS V13.01,2013-07-16 20:24:00,
2013-07-16 15:25:00,92.7,57.6,29.32,East,98,0.0,0.0,31,0.00,,,0.00,VWS V13.01,2013-07-16 20:25:00,
2013-07-16 15:26:00,92.8,57.8,29.32,East,99,0.0,0.0,31,0.00,,,0.00,VWS V13.01,2013-07-16 20:26:00,
2013-07-16 15:27:00,92.8,57.8,29.32,SE,144,4.0,4.0,31,0.00,,,0.00,VWS V13.01,2013-07-16 20:27:00,
2013-07-16 15:29:00,92.7,57.6,29.32,South,187,2.7,2.7,31,0.00,,,0.00,VWS V13.01,2013-07-16 20:29:00,
2013-07-16 15:31:00,92.1,57.2,29.32,South,177,8.1,8.1,31,0.00,,,0.00,VWS V13.01,2013-07-16 20:31:00,
2013-07-16 15:32:00,90.5,60.7,29.32,South,185,6.3,6.3,37,0.00,,,0.00,VWS V13.01,2013-07-16 20:32:00,
2013-07-16 15:34:00,90.3,60.5,29.32,South,189,5.4,5.4,37,0.00,,,0.00,VWS V13.01,2013-07-16 20:34:00,
2013-07-16 15:36:00,90.3,60.5,29.32,South,190,0.0,0.0,37,0.00,,,0.00,VWS V13.01,2013-07-16 20:36:00,
2013-07-16 15:37:00,90.9,61.0,29.32,SW,224,0.0,0.0,37,0.00,,,0.00,VWS V13.01,2013-07-16 20:37:00,
2013-07-16 15:39:00,91.0,61.2,29.32,South,191,6.3,6.3,37,0.00,,,0.00,VWS V13.01,2013-07-16 20:39:00,
2013-07-16 15:41:00,91.4,56.5,29.32,South,184,6.3,6.3,31,0.00,,,0.00,VWS V13.01,2013-07-16 20:41:00,
2013-07-16 15:42:00,91.6,56.7,29.32,South,190,0.0,0.0,31,0.00,,,0.00,VWS V13.01,2013-07-16 20:42:00,
2013-07-16 15:44:00,91.4,56.5,29.32,South,178,5.8,5.8,31,0.00,,,0.00,VWS V13.01,2013-07-16 20:44:00,
2013-07-16 15:46:00,91.8,56.9,29.32,SSE,165,5.4,5.4,31,0.00,,,0.00,VWS V13.01,2013-07-16 20:46:00,
2013-07-16 15:47:00,91.4,56.5,29.32,South,179,12.3,12.3,31,0.00,,,0.00,VWS V13.01,2013-07-16 20:47:00,
2013-07-16 15:49:00,91.2,61.3,29.32,South,191,7.6,7.6,37,0.00,,,0.00,VWS V13.01,2013-07-16 20:49:00,
2013-07-16 15:51:00,91.2,61.3,29.32,South,178,4.9,4.9,37,0.00,,,0.00,VWS V13.01,2013-07-16 20:51:00,
2013-07-16 15:52:00,91.6,56.7,29.32,South,180,5.4,5.4,31,0.00,,,0.00,VWS V13.01,2013-07-16 20:52:00,
2013-07-16 15:54:00,91.6,56.7,29.32,South,189,5.4,5.4,31,0.00,,,0.00,VWS V13.01,2013-07-16 20:54:00,
2013-07-16 15:56:00,91.8,56.9,29.32,SSW,197,6.3,6.3,31,0.00,,,0.00,VWS V13.01,2013-07-16 20:56:00,
2013-07-16 15:57:00,91.9,57.0,29.32,South,190,6.3,6.3,31,0.00,,,0.00,VWS V13.01,2013-07-16 20:57:00,
2013-07-16 15:59:00,91.9,57.0,29.32,SSW,194,4.0,4.0,31,0.00,,,0.00,VWS V13.01,2013-07-16 20:59:00,
2013-07-16 16:01:00,91.4,56.5,29.32,SSW,203,7.6,7.6,31,0.00,,,0.00,VWS V13.01,2013-07-16 21:01:00,
2013-07-16 16:03:00,91.6,56.7,29.32,South,186,0.0,0.0,31,0.00,,,0.00,VWS V13.01,2013-07-16 21:03:00,
2013-07-16 16:04:00,91.6,56.7,29.32,South,178,4.0,4.0,31,0.00,,,0.00,VWS V13.01,2013-07-16 21:04:00,
2013-07-16 16:06:00,91.6,56.7,29.32,South,184,3.6,3.6,31,0.00,,,0.00,VWS V13.01,2013-07-16 21:06:00,
2013-07-16 16:08:00,91.8,56.9,29.32,SSW,197,4.0,4.0,31,0.00,,,0.00,VWS V13.01,2013-07-16 21:08:00,
2013-07-16 16:09:00,91.6,56.7,29.32,South,186,7.6,7.6,31,0.00,,,0.00,VWS V13.01,2013-07-16 21:09:00,
2013-07-16 16:11:00,91.9,57.0,29.32,South,183,8.3,8.3,31,0.00,,,0.00,VWS V13.01,2013-07-16 21:11:00,
2013-07-16 16:12:00,91.9,57.0,29.32,SE,141,4.9,4.9,31,0.00,,,0.00,VWS V13.01,2013-07-16 21:12:00,
2013-07-16 16:13:00,91.8,56.9,29.32,SSW,204,5.4,5.4,31,0.00,,,0.00,VWS V13.01,2013-07-16 21:13:00,
2013-07-16 16:14:00,91.9,57.0,29.32,South,176,6.3,6.3,31,0.00,,,0.00,VWS V13.01,2013-07-16 21:14:00,
2013-07-16 16:16:00,91.9,57.0,29.32,SSW,192,4.0,4.0,31,0.00,,,0.00,VWS V13.01,2013-07-16 21:16:00,
2013-07-16 16:17:00,91.9,57.0,29.32,SSW,192,4.0,4.0,31,0.00,,,0.00,VWS V13.01,2013-07-16 21:17:00,
2013-07-16 16:18:00,91.8,56.9,29.32,South,181,7.6,7.6,31,0.00,,,0.00,VWS V13.01,2013-07-16 21:18:00,
2013-07-16 16:19:00,91.4,56.5,29.32,South,177,5.8,5.8,31,0.00,,,0.00,VWS V13.01,2013-07-16 21:19:00,
2013-07-16 16:21:00,91.8,56.9,29.32,South,176,0.0,0.0,31,0.00,,,0.00,VWS V13.01,2013-07-16 21:21:00,
2013-07-16 16:22:00,91.8,56.9,29.32,NW,322,2.7,2.7,31,0.00,,,0.00,VWS V13.01,2013-07-16 21:22:00,
2013-07-16 16:23:00,91.9,57.0,29.32,NW,322,0.0,0.0,31,0.00,,,0.00,VWS V13.01,2013-07-16 21:23:00,
2013-07-16 16:25:00,92.1,57.2,29.32,East,96,0.0,0.0,31,0.00,,,0.00,VWS V13.01,2013-07-16 21:25:00,
2013-07-16 16:26:00,91.9,57.0,29.32,South,176,5.8,5.8,31,0.00,,,0.00,VWS V13.01,2013-07-16 21:26:00,
2013-07-16 16:27:00,91.9,57.0,29.32,South,176,6.7,6.7,31,0.00,,,0.00,VWS V13.01,2013-07-16 21:27:00,
2013-07-16 16:28:00,92.1,57.2,29.32,South,173,7.6,7.6,31,0.00,,,0.00,VWS V13.01,2013-07-16 21:28:00,
2013-07-16 16:30:00,92.1,57.2,29.32,South,188,8.1,8.1,31,0.00,,,0.00,VWS V13.01,2013-07-16 21:30:00,
2013-07-16 16:31:00,91.2,61.3,29.32,SSW,192,5.8,5.8,37,0.00,,,0.00,VWS V13.01,2013-07-16 21:31:00,
2013-07-16 16:32:00,91.4,56.5,29.32,SSW,192,4.0,4.0,31,0.00,,,0.00,VWS V13.01,2013-07-16 21:32:00,
2013-07-16 16:33:00,91.2,61.3,29.32,SSW,196,7.6,7.6,37,0.00,,,0.00,VWS V13.01,2013-07-16 21:33:00,
2013-07-16 16:35:00,91.2,61.3,29.32,South,187,5.4,5.4,37,0.00,,,0.00,VWS V13.01,2013-07-16 21:35:00,
2013-07-16 16:36:00,91.4,56.5,29.32,SSW,197,5.8,5.8,31,0.00,,,0.00,VWS V13.01,2013-07-16 21:36:00,
2013-07-16 16:37:00,91.6,56.7,29.32,SSW,195,3.6,3.6,31,0.00,,,0.00,VWS V13.01,2013-07-16 21:37:00,
2013-07-16 16:38:00,91.6,56.7,29.32,SSW,196,3.6,3.6,31,0.00,,,0.00,VWS V13.01,2013-07-16 21:38:00,
2013-07-16 16:40:00,91.6,56.7,29.32,SSW,198,6.3,6.3,31,0.00,,,0.00,VWS V13.01,2013-07-16 21:40:00,
2013-07-16 16:42:00,91.8,56.9,29.32,SSE,165,3.1,3.1,31,0.00,,,0.00,VWS V13.01,2013-07-16 21:42:00,
2013-07-16 16:43:00,91.9,57.0,29.32,South,185,3.1,3.1,31,0.00,,,0.00,VWS V13.01,2013-07-16 21:43:00,
2013-07-16 16:45:00,92.5,57.5,29.32,South,186,5.8,5.8,31,0.00,,,0.00,VWS V13.01,2013-07-16 21:45:00,
2013-07-16 16:47:00,93.4,58.2,29.32,South,189,4.9,4.9,31,0.00,,,0.00,VWS V13.01,2013-07-16 21:47:00,
2013-07-16 16:48:00,94.3,59.0,29.32,SSW,199,3.6,3.6,31,0.00,,,0.00,VWS V13.01,2013-07-16 21:48:00,
2013-07-16 16:50:00,95.0,59.7,29.32,South,169,0.0,0.0,31,0.00,,,0.00,VWS V13.01,2013-07-16 21:50:00,
2013-07-16 16:52:00,95.5,60.1,29.32,East,84,0.0,0.0,31,0.00,,,0.00,VWS V13.01,2013-07-16 21:52:00,
2013-07-16 16:53:00,95.7,60.3,29.32,ENE,76,0.0,0.0,31,0.00,,,0.00,VWS V13.01,2013-07-16 21:53:00,
2013-07-16 16:55:00,95.4,60.0,29.32,South,181,0.0,0.0,31,0.00,,,0.00,VWS V13.01,2013-07-16 21:55:00,
2013-07-16 16:57:00,94.8,59.5,29.32,ESE,115,0.0,0.0,31,0.00,,,0.00,VWS V13.01,2013-07-16 21:57:00,
2013-07-16 16:58:00,94.6,59.3,29.32,ESE,110,0.0,0.0,31,0.00,,,0.00,VWS V13.01,2013-07-16 21:58:00,
2013-07-16 17:00:00,93.4,58.2,29.32,SSW,199,3.1,3.1,31,0.00,,,0.00,VWS V13.01,2013-07-16 22:00:00,
2013-07-16 17:02:00,92.8,57.8,29.32,South,179,4.9,4.9,31,0.00,,,0.00,VWS V13.01,2013-07-16 22:02:00,
2013-07-16 17:03:00,93.2,58.1,29.32,South,190,5.8,5.8,31,0.00,,,0.00,VWS V13.01,2013-07-16 22:03:00,
2013-07-16 17:05:00,93.0,57.9,29.32,South,178,5.4,5.4,31,0.00,,,0.00,VWS V13.01,2013-07-16 22:05:00,
2013-07-16 17:07:00,92.8,57.8,29.32,South,177,6.3,6.3,31,0.00,,,0.00,VWS V13.01,2013-07-16 22:07:00,
2013-07-16 17:08:00,92.3,57.3,29.32,SSW,194,8.3,8.3,31,0.00,,,0.00,VWS V13.01,2013-07-16 22:08:00,
2013-07-16 17:10:00,91.9,57.0,29.32,South,185,6.3,6.3,31,0.00,,,0.00,VWS V13.01,2013-07-16 22:10:00,
2013-07-16 17:12:00,92.1,57.2,29.32,South,184,4.0,4.0,31,0.00,,,0.00,VWS V13.01,2013-07-16 22:12:00,
2013-07-16 17:13:00,91.9,57.0,29.32,South,189,6.3,6.3,31,0.00,,,0.00,VWS V13.01,2013-07-16 22:13:00,
2013-07-16 17:15:00,92.3,57.3,29.32,South,178,3.1,3.1,31,0.00,,,0.00,VWS V13.01,2013-07-16 22:15:00,
2013-07-16 17:17:00,92.3,57.3,29.32,South,175,5.4,5.4,31,0.00,,,0.00,VWS V13.01,2013-07-16 22:17:00,
2013-07-16 17:18:00,92.3,57.3,29.32,South,189,6.3,6.3,31,0.00,,,0.00,VWS V13.01,2013-07-16 22:18:00,
2013-07-16 17:20:00,92.1,57.2,29.32,South,172,9.6,9.6,31,0.00,,,0.00,VWS V13.01,2013-07-16 22:20:00,
2013-07-16 17:22:00,91.9,57.0,29.32,South,182,3.6,3.6,31,0.00,,,0.00,VWS V13.01,2013-07-16 22:22:00,
2013-07-16 17:23:00,92.1,57.2,29.32,South,188,6.3,6.3,31,0.00,,,0.00,VWS V13.01,2013-07-16 22:23:00,
2013-07-16 17:25:00,92.1,57.2,29.32,SSW,200,2.2,2.2,31,0.00,,,0.00,VWS V13.01,2013-07-16 22:25:00,
2013-07-16 17:27:00,92.3,57.3,29.32,South,173,0.0,0.0,31,0.00,,,0.00,VWS V13.01,2013-07-16 22:27:00,
2013-07-16 17:28:00,92.3,57.3,29.32,South,176,0.0,0.0,31,0.00,,,0.00,VWS V13.01,2013-07-16 22:28:00,
2013-07-16 17:29:00,92.3,57.3,29.32,SSE,154,0.0,0.0,31,0.00,,,0.00,VWS V13.01,2013-07-16 22:29:00,
2013-07-16 17:31:00,92.5,57.5,29.32,SSE,156,2.7,2.7,31,0.00,,,0.00,VWS V13.01,2013-07-16 22:31:00,
2013-07-16 17:32:00,92.5,57.5,29.32,SSE,168,2.2,2.2,31,0.00,,,0.00,VWS V13.01,2013-07-16 22:32:00,
2013-07-16 17:33:00,92.5,57.5,29.32,SSE,168,0.0,0.0,31,0.00,,,0.00,VWS V13.01,2013-07-16 22:33:00,
2013-07-16 17:34:00,92.5,57.5,29.32,South,189,2.7,2.7,31,0.00,,,0.00,VWS V13.01,2013-07-16 22:34:00,
2013-07-16 17:36:00,92.5,57.5,29.32,East,100,0.0,0.0,31,0.00,,,0.00,VWS V13.01,2013-07-16 22:36:00,
2013-07-16 17:37:00,92.3,57.3,29.32,South,189,0.0,0.0,31,0.00,,,0.00,VWS V13.01,2013-07-16 22:37:00,
2013-07-16 17:38:00,92.3,57.3,29.32,South,191,2.7,2.7,31,0.00,,,0.00,VWS V13.01,2013-07-16 22:38:00,
2013-07-16 17:39:00,92.5,57.5,29.32,South,188,6.3,6.3,31,0.00,,,0.00,VWS V13.01,2013-07-16 22:39:00,
2013-07-16 17:41:00,92.5,57.5,29.32,South,181,3.1,3.1,31,0.00,,,0.00,VWS V13.01,2013-07-16 22:41:00,
2013-07-16 17:42:00,92.7,57.6,29.32,South,173,0.0,0.0,31,0.00,,,0.00,VWS V13.01,2013-07-16 22:42:00,
2013-07-16 17:43:00,92.7,57.6,29.32,SSE,154,0.0,0.0,31,0.00,,,0.00,VWS V13.01,2013-07-16 22:43:00,
2013-07-16 17:44:00,92.7,57.6,29.32,South,174,0.0,0.0,31,0.00,,,0.00,VWS V13.01,2013-07-16 22:44:00,
2013-07-16 17:46:00,93.0,57.9,29.32,SW,216,0.0,0.0,31,0.00,,,0.00,VWS V13.01,2013-07-16 22:46:00,
2013-07-16 17:47:00,92.8,57.8,29.32,South,187,3.1,3.1,31,0.00,,,0.00,VWS V13.01,2013-07-16 22:47:00,
2013-07-16 17:48:00,93.2,58.1,29.32,South,184,5.4,5.4,31,0.00,,,0.00,VWS V13.01,2013-07-16 22:48:00,
2013-07-16 17:49:00,92.7,57.6,29.32,South,177,6.3,6.3,31,0.00,,,0.00,VWS V13.01,2013-07-16 22:49:00,
2013-07-16 17:51:00,93.0,57.9,29.32,SSW,202,4.9,4.9,31,0.00,,,0.00,VWS V13.01,2013-07-16 22:51:00,
2013-07-16 17:53:00,93.9,58.7,29.32,SE,143,0.0,0.0,31,0.00,,,0.00,VWS V13.01,2013-07-16 22:53:00,
2013-07-16 17:54:00,94.3,59.0,29.32,SSW,199,0.0,0.0,31,0.00,,,0.00,VWS V13.01,2013-07-16 22:54:00,
2013-07-16 17:56:00,95.2,59.8,29.32,SSW,199,0.0,0.0,31,0.00,,,0.00,VWS V13.01,2013-07-16 22:56:00,
2013-07-16 17:58:00,94.6,59.3,29.32,East,90,0.0,0.0,31,0.00,,,0.00,VWS V13.01,2013-07-16 22:58:00,
2013-07-16 17:59:00,94.8,59.5,29.32,East,96,0.0,0.0,31,0.00,,,0.00,VWS V13.01,2013-07-16 22:59:00,
2013-07-16 18:01:00,94.1,58.9,29.32,SSE,154,0.0,0.0,31,0.00,,,0.00,VWS V13.01,2013-07-16 23:01:00,
2013-07-16 18:03:00,93.7,58.6,29.32,SSE,155,0.0,0.0,31,0.00,,,0.00,VWS V13.01,2013-07-16 23:03:00,
2013-07-16 18:04:00,93.4,58.2,29.32,SSE,154,0.0,0.0,31,0.00,,,0.00,VWS V13.01,2013-07-16 23:04:00,
2013-07-16 18:06:00,93.2,58.1,29.32,NE,41,2.7,2.7,31,0.00,,,0.00,VWS V13.01,2013-07-16 23:06:00,
2013-07-16 18:08:00,92.8,57.8,29.32,SSW,197,0.0,0.0,31,0.00,,,0.00,VWS V13.01,2013-07-16 23:08:00,
2013-07-16 18:09:00,92.5,57.5,29.32,NE,55,0.0,0.0,31,0.00,,,0.00,VWS V13.01,2013-07-16 23:09:00,
2013-07-16 18:11:00,92.1,57.2,29.32,South,191,3.6,3.6,31,0.00,,,0.00,VWS V13.01,2013-07-16 23:11:00,
2013-07-16 18:13:00,92.1,57.2,29.32,ENE,78,0.0,0.0,31,0.00,,,0.00,VWS V13.01,2013-07-16 23:13:00,
2013-07-16 18:14:00,91.8,56.9,29.32,ESE,114,0.0,0.0,31,0.00,,,0.00,VWS V13.01,2013-07-16 23:14:00,
2013-07-16 18:16:00,91.6,56.7,29.32,ESE,113,4.0,4.0,31,0.00,,,0.00,VWS V13.01,2013-07-16 23:16:00,
2013-07-16 18:18:00,91.6,56.7,29.32,ENE,70,2.7,2.7,31,0.00,,,0.00,VWS V13.01,2013-07-16 23:18:00,
2013-07-16 18:19:00,91.6,56.7,29.32,ESE,119,0.0,0.0,31,0.00,,,0.00,VWS V13.01,2013-07-16 23:19:00,
2013-07-16 18:23:00,91.6,56.7,29.32,South,180,0.0,0.0,31,0.00,,,0.00,VWS V13.01,2013-07-16 23:23:00,
2013-07-16 18:24:00,91.6,56.7,29.32,NNE,29,0.0,0.0,31,0.00,,,0.00,VWS V13.01,2013-07-16 23:24:00,
2013-07-16 18:25:00,91.6,56.7,29.32,ENE,59,0.0,0.0,31,0.00,,,0.00,VWS V13.01,2013-07-16 23:25:00,
2013-07-16 18:28:00,91.4,56.5,29.32,NE,56,0.0,0.0,31,0.00,,,0.00,VWS V13.01,2013-07-16 23:28:00,
2013-07-16 18:29:00,91.4,56.5,29.32,ENE,66,0.0,0.0,31,0.00,,,0.00,VWS V13.01,2013-07-16 23:29:00,
2013-07-16 18:30:00,91.4,56.5,29.32,ENE,66,0.0,0.0,31,0.00,,,0.00,VWS V13.01,2013-07-16 23:30:00,
2013-07-16 18:33:00,91.2,61.3,29.32,ENE,64,2.7,2.7,37,0.00,,,0.00,VWS V13.01,2013-07-16 23:33:00,
2013-07-16 18:35:00,91.0,61.2,29.32,ESE,114,0.0,0.0,37,0.00,,,0.00,VWS V13.01,2013-07-16 23:35:00,
2013-07-16 18:38:00,90.5,60.7,29.32,ESE,114,0.0,0.0,37,0.00,,,0.00,VWS V13.01,2013-07-16 23:38:00,
2013-07-16 18:40:00,90.1,60.4,29.32,ESE,114,0.0,0.0,37,0.00,,,0.00,VWS V13.01,2013-07-16 23:40:00,
2013-07-16 18:43:00,90.3,60.5,29.32,ESE,114,0.0,0.0,37,0.00,,,0.00,VWS V13.01,2013-07-16 23:43:00,
2013-07-16 18:45:00,90.0,60.2,29.32,ESE,114,0.0,0.0,37,0.00,,,0.00,VWS V13.01,2013-07-16 23:45:00,
2013-07-16 18:48:00,89.8,60.1,29.32,ESE,114,0.0,0.0,37,0.00,,,0.00,VWS V13.01,2013-07-16 23:48:00,
2013-07-16 18:49:00,89.8,60.1,29.32,ESE,114,0.0,0.0,37,0.00,,,0.00,VWS V13.01,2013-07-16 23:49:00,
2013-07-16 18:50:00,89.6,59.9,29.32,East,83,0.0,0.0,37,0.00,,,0.00,VWS V13.01,2013-07-16 23:50:00,
2013-07-16 18:53:00,89.6,59.9,29.32,East,84,0.0,0.0,37,0.00,,,0.00,VWS V13.01,2013-07-16 23:53:00,
2013-07-16 18:54:00,89.6,59.9,29.32,East,96,0.0,0.0,37,0.00,,,0.00,VWS V13.01,2013-07-16 23:54:00,
2013-07-16 18:55:00,89.8,60.1,29.32,East,86,0.0,0.0,37,0.00,,,0.00,VWS V13.01,2013-07-16 23:55:00,
2013-07-16 18:58:00,89.8,60.1,29.32,ENE,64,0.0,0.0,37,0.00,,,0.00,VWS V13.01,2013-07-16 23:58:00,
2013-07-16 18:59:00,90.0,60.2,29.32,SE,146,0.0,0.0,37,0.00,,,0.00,VWS V13.01,2013-07-16 23:59:00,
2013-07-16 19:00:00,90.0,60.2,29.32,SE,146,0.0,0.0,37,0.00,,,0.00,VWS V13.01,2013-07-17 00:00:00,
2013-07-16 19:03:00,90.3,60.5,29.32,ESE,105,0.0,0.0,37,0.00,,,0.00,VWS V13.01,2013-07-17 00:03:00,
2013-07-16 19:04:00,90.3,60.5,29.32,ESE,105,0.0,0.0,37,0.00,,,0.00,VWS V13.01,2013-07-17 00:04:00,
2013-07-16 19:05:00,90.5,60.7,29.32,ESE,105,0.0,0.0,37,0.00,,,0.00,VWS V13.01,2013-07-17 00:05:00,
2013-07-16 19:08:00,90.3,60.5,29.32,ENE,64,0.0,0.0,37,0.00,,,0.00,VWS V13.01,2013-07-17 00:08:00,
2013-07-16 19:09:00,90.3,60.5,29.32,ENE,64,0.0,0.0,37,0.00,,,0.00,VWS V13.01,2013-07-17 00:09:00,
2013-07-16 19:10:00,90.1,60.4,29.29,East,90,0.0,0.0,37,0.00,,,0.00,VWS V13.01,2013-07-17 00:10:00,
2013-07-16 19:13:00,90.1,60.4,29.29,ENE,74,3.6,3.6,37,0.00,,,0.00,VWS V13.01,2013-07-17 00:13:00,
2013-07-16 19:14:00,90.1,60.4,29.29,ENE,74,0.0,0.0,37,0.00,,,0.00,VWS V13.01,2013-07-17 00:14:00,
2013-07-16 19:15:00,90.3,60.5,29.29,East,80,0.0,0.0,37,0.00,,,0.00,VWS V13.01,2013-07-17 00:15:00,
2013-07-16 19:18:00,90.3,60.5,29.29,ENE,78,3.6,3.6,37,0.00,,,0.00,VWS V13.01,2013-07-17 00:18:00,
2013-07-16 19:19:00,90.3,60.5,29.29,East,80,0.0,0.0,37,0.00,,,0.00,VWS V13.01,2013-07-17 00:19:00,
2013-07-16 19:20:00,90.5,60.7,29.29,East,80,0.0,0.0,37,0.00,,,0.00,VWS V13.01,2013-07-17 00:20:00,
2013-07-16 19:23:00,91.2,61.3,29.29,ENE,68,0.0,0.0,37,0.00,,,0.00,VWS V13.01,2013-07-17 00:23:00,
2013-07-16 19:24:00,91.4,56.5,29.29,ENE,68,0.0,0.0,31,0.00,,,0.00,VWS V13.01,2013-07-17 00:24:00,
2013-07-16 19:25:00,91.8,56.9,29.32,East,99,0.0,0.0,31,0.00,,,0.00,VWS V13.01,2013-07-17 00:25:00,
2013-07-16 19:29:00,91.8,56.9,29.32,East,99,0.0,0.0,31,0.00,,,0.00,VWS V13.01,2013-07-17 00:29:00,
2013-07-16 19:30:00,91.2,61.3,29.32,ENE,65,0.0,0.0,37,0.00,,,0.00,VWS V13.01,2013-07-17 00:30:00,
2013-07-16 19:34:00,90.5,60.7,29.32,ENE,70,0.0,0.0,37,0.00,,,0.00,VWS V13.01,2013-07-17 00:34:00,
2013-07-16 19:35:00,90.3,60.5,29.32,ENE,70,0.0,0.0,37,0.00,,,0.00,VWS V13.01,2013-07-17 00:35:00,
2013-07-16 19:36:00,90.3,60.5,29.32,ENE,70,0.0,0.0,37,0.00,,,0.00,VWS V13.01,2013-07-17 00:36:00,
2013-07-16 19:39:00,90.3,60.5,29.32,ENE,70,0.0,0.0,37,0.00,,,0.00,VWS V13.01,2013-07-17 00:39:00,
2013-07-16 19:40:00,90.5,60.7,29.32,ENE,70,0.0,0.0,37,0.00,,,0.00,VWS V13.01,2013-07-17 00:40:00,
2013-07-16 19:41:00,90.5,60.7,29.32,ENE,70,0.0,0.0,37,0.00,,,0.00,VWS V13.01,2013-07-17 00:41:00,
2013-07-16 19:44:00,90.9,61.0,29.32,ENE,70,0.0,0.0,37,0.00,,,0.00,VWS V13.01,2013-07-17 00:44:00,
2013-07-16 19:45:00,91.2,61.3,29.32,ENE,70,0.0,0.0,37,0.00,,,0.00,VWS V13.01,2013-07-17 00:45:00,
2013-07-16 19:46:00,91.2,61.3,29.32,ENE,70,0.0,0.0,37,0.00,,,0.00,VWS V13.01,2013-07-17 00:46:00,
2013-07-16 19:49:00,90.9,61.0,29.32,ENE,70,0.0,0.0,37,0.00,,,0.00,VWS V13.01,2013-07-17 00:49:00,
2013-07-16 19:50:00,90.3,60.5,29.32,ENE,70,0.0,0.0,37,0.00,,,0.00,VWS V13.01,2013-07-17 00:50:00,
2013-07-16 19:51:00,90.3,60.5,29.32,SW,218,0.0,0.0,37,0.00,,,0.00,VWS V13.01,2013-07-17 00:51:00,
2013-07-16 19:54:00,89.6,59.9,29.32,SW,218,0.0,0.0,37,0.00,,,0.00,VWS V13.01,2013-07-17 00:54:00,
2013-07-16 19:55:00,89.4,59.7,29.32,SW,218,0.0,0.0,37,0.00,,,0.00,VWS V13.01,2013-07-17 00:55:00,
2013-07-16 19:56:00,89.4,59.7,29.32,SW,218,0.0,0.0,37,0.00,,,0.00,VWS V13.01,2013-07-17 00:56:00,
2013-07-16 19:59:00,88.7,59.1,29.32,SW,218,0.0,0.0,37,0.00,,,0.00,VWS V13.01,2013-07-17 00:59:00,
2013-07-16 20:00:00,88.5,59.0,29.32,SW,218,0.0,0.0,37,0.00,,,0.00,VWS V13.01,2013-07-17 01:00:00,
2013-07-16 20:01:00,88.3,58.8,29.32,SW,218,0.0,0.0,37,0.00,,,0.00,VWS V13.01,2013-07-17 01:01:00,
2013-07-16 20:04:00,87.8,58.3,29.32,South,187,0.0,0.0,37,0.00,,,0.00,VWS V13.01,2013-07-17 01:04:00,
2013-07-16 20:05:00,88.0,58.5,29.32,South,185,0.0,0.0,37,0.00,,,0.00,VWS V13.01,2013-07-17 01:05:00,
2013-07-16 20:06:00,88.0,58.5,29.32,South,184,0.0,0.0,37,0.00,,,0.00,VWS V13.01,2013-07-17 01:06:00,
2013-07-16 20:09:00,88.0,58.5,29.32,South,184,0.0,0.0,37,0.00,,,0.00,VWS V13.01,2013-07-17 01:09:00,
2013-07-16 20:10:00,87.8,58.3,29.32,South,184,0.0,0.0,37,0.00,,,0.00,VWS V13.01,2013-07-17 01:10:00,
2013-07-16 20:11:00,87.8,58.3,29.32,South,184,0.0,0.0,37,0.00,,,0.00,VWS V13.01,2013-07-17 01:11:00,
2013-07-16 20:14:00,87.6,62.4,29.32,South,184,0.0,0.0,43,0.00,,,0.00,VWS V13.01,2013-07-17 01:14:00,
2013-07-16 20:16:00,87.4,62.2,29.32,South,184,0.0,0.0,43,0.00,,,0.00,VWS V13.01,2013-07-17 01:16:00,
2013-07-16 20:19:00,87.1,61.9,29.32,South,184,0.0,0.0,43,0.00,,,0.00,VWS V13.01,2013-07-17 01:19:00,
2013-07-16 20:21:00,87.1,61.9,29.32,South,184,0.0,0.0,43,0.00,,,0.00,VWS V13.01,2013-07-17 01:21:00,
2013-07-16 20:22:00,87.1,61.9,29.32,South,184,0.0,0.0,43,0.00,,,0.00,VWS V13.01,2013-07-17 01:22:00,
2013-07-16 20:24:00,86.9,61.7,29.32,South,184,0.0,0.0,43,0.00,,,0.00,VWS V13.01,2013-07-17 01:24:00,
2013-07-16 20:25:00,86.7,61.6,29.32,South,184,0.0,0.0,43,0.00,,,0.00,VWS V13.01,2013-07-17 01:25:00,
2013-07-16 20:26:00,86.5,61.4,29.32,South,184,0.0,0.0,43,0.00,,,0.00,VWS V13.01,2013-07-17 01:26:00,
2013-07-16 20:27:00,86.4,61.2,29.32,South,184,0.0,0.0,43,0.00,,,0.00,VWS V13.01,2013-07-17 01:27:00,
2013-07-16 20:29:00,86.4,61.2,29.32,South,184,0.0,0.0,43,0.00,,,0.00,VWS V13.01,2013-07-17 01:29:00,
2013-07-16 20:30:00,86.4,61.2,29.32,South,184,0.0,0.0,43,0.00,,,0.00,VWS V13.01,2013-07-17 01:30:00,
2013-07-16 20:31:00,86.2,61.1,29.32,South,184,0.0,0.0,43,0.00,,,0.00,VWS V13.01,2013-07-17 01:31:00,
2013-07-16 20:32:00,86.2,61.1,29.32,South,184,0.0,0.0,43,0.00,,,0.00,VWS V13.01,2013-07-17 01:32:00,
2013-07-16 20:34:00,85.8,60.8,29.32,South,184,0.0,0.0,43,0.00,,,0.00,VWS V13.01,2013-07-17 01:34:00,
2013-07-16 20:35:00,85.8,60.8,29.32,South,184,0.0,0.0,43,0.00,,,0.00,VWS V13.01,2013-07-17 01:35:00,
2013-07-16 20:36:00,85.8,60.8,29.32,South,184,0.0,0.0,43,0.00,,,0.00,VWS V13.01,2013-07-17 01:36:00,
2013-07-16 20:37:00,85.8,60.8,29.32,South,184,0.0,0.0,43,0.00,,,0.00,VWS V13.01,2013-07-17 01:37:00,
2013-07-16 20:39:00,85.5,60.4,29.32,South,187,0.0,0.0,43,0.00,,,0.00,VWS V13.01,2013-07-17 01:39:00,
2013-07-16 20:40:00,85.6,60.6,29.32,SSW,201,4.0,4.0,43,0.00,,,0.00,VWS V13.01,2013-07-17 01:40:00,
2013-07-16 20:41:00,85.8,60.8,29.32,SSW,197,4.0,4.0,43,0.00,,,0.00,VWS V13.01,2013-07-17 01:41:00,
2013-07-16 20:42:00,86.0,60.9,29.32,South,182,4.0,4.0,43,0.00,,,0.00,VWS V13.01,2013-07-17 01:42:00,
2013-07-16 20:45:00,86.2,61.1,29.32,South,187,4.0,4.0,43,0.00,,,0.00,VWS V13.01,2013-07-17 01:45:00,
2013-07-16 20:46:00,86.0,60.9,29.32,South,183,6.3,6.3,43,0.00,,,0.00,VWS V13.01,2013-07-17 01:46:00,
2013-07-16 20:47:00,86.0,60.9,29.32,South,181,6.3,6.3,43,0.00,,,0.00,VWS V13.01,2013-07-17 01:47:00,
2013-07-16 20:50:00,85.5,60.4,29.32,South,185,6.3,6.3,43,0.00,,,0.00,VWS V13.01,2013-07-17 01:50:00,
2013-07-16 20:51:00,85.5,60.4,29.32,South,180,5.4,5.4,43,0.00,,,0.00,VWS V13.01,2013-07-17 01:51:00,
2013-07-16 20:52:00,85.3,60.3,29.32,South,181,5.8,5.8,43,0.00,,,0.00,VWS V13.01,2013-07-17 01:52:00,
2013-07-16 20:55:00,84.7,59.8,29.32,South,182,5.4,5.4,43,0.00,,,0.00,VWS V13.01,2013-07-17 01:55:00,
2013-07-16 20:56:00,84.6,59.6,29.32,South,176,7.6,7.6,43,0.00,,,0.00,VWS V13.01,2013-07-17 01:56:00,
2013-07-16 20:57:00,84.6,59.6,29.32,South,181,6.3,6.3,43,0.00,,,0.00,VWS V13.01,2013-07-17 01:57:00,
2013-07-16 20:58:00,84.4,59.5,29.32,South,177,5.4,5.4,43,0.00,,,0.00,VWS V13.01,2013-07-17 01:58:00,
2013-07-16 21:00:00,84.4,59.5,29.32,South,183,6.3,6.3,43,0.00,,,0.00,VWS V13.01,2013-07-17 02:00:00,
2013-07-16 21:01:00,84.0,59.1,29.32,South,186,5.4,5.4,43,0.00,,,0.00,VWS V13.01,2013-07-17 02:01:00,
2013-07-16 21:02:00,84.0,59.1,29.32,South,185,5.8,5.8,43,0.00,,,0.00,VWS V13.01,2013-07-17 02:02:00,
2013-07-16 21:03:00,84.0,59.1,29.32,South,185,5.8,5.8,43,0.00,,,0.00,VWS V13.01,2013-07-17 02:03:00,
2013-07-16 21:05:00,83.8,59.0,29.32,South,185,5.8,5.8,43,0.00,,,0.00,VWS V13.01,2013-07-17 02:05:00,
2013-07-16 21:06:00,83.8,59.0,29.32,South,183,5.4,5.4,43,0.00,,,0.00,VWS V13.01,2013-07-17 02:06:00,
2013-07-16 21:07:00,83.8,59.0,29.32,South,178,7.6,7.6,43,0.00,,,0.00,VWS V13.01,2013-07-17 02:07:00,
2013-07-16 21:08:00,83.8,59.0,29.32,South,183,6.3,6.3,43,0.00,,,0.00,VWS V13.01,2013-07-17 02:08:00,
2013-07-16 21:10:00,83.8,59.0,29.32,SSW,192,5.4,5.4,43,0.00,,,0.00,VWS V13.01,2013-07-17 02:10:00,
2013-07-16 21:12:00,83.8,59.0,29.32,South,184,5.4,5.4,43,0.00,,,0.00,VWS V13.01,2013-07-17 02:12:00,
2013-07-16 21:13:00,83.7,58.8,29.32,South,181,6.3,6.3,43,0.00,,,0.00,VWS V13.01,2013-07-17 02:13:00,
2013-07-16 21:15:00,83.7,58.8,29.32,South,181,6.3,6.3,43,0.00,,,0.00,VWS V13.01,2013-07-17 02:15:00,
2013-07-16 21:16:00,83.7,58.8,29.32,South,181,5.4,5.4,43,0.00,,,0.00,VWS V13.01,2013-07-17 02:16:00,
2013-07-16 21:17:00,83.7,58.8,29.32,South,183,5.8,5.8,43,0.00,,,0.00,VWS V13.01,2013-07-17 02:17:00,
2013-07-16 21:18:00,83.5,58.7,29.32,South,185,3.6,3.6,43,0.00,,,0.00,VWS V13.01,2013-07-17 02:18:00,
2013-07-16 21:20:00,83.5,58.7,29.32,South,182,6.3,6.3,43,0.00,,,0.00,VWS V13.01,2013-07-17 02:20:00,
2013-07-16 21:21:00,83.5,58.7,29.32,South,183,4.9,4.9,43,0.00,,,0.00,VWS V13.01,2013-07-17 02:21:00,
2013-07-16 21:22:00,83.3,58.5,29.32,South,181,5.8,5.8,43,0.00,,,0.00,VWS V13.01,2013-07-17 02:22:00,
2013-07-16 21:23:00,83.1,58.3,29.32,South,181,5.4,5.4,43,0.00,,,0.00,VWS V13.01,2013-07-17 02:23:00,
2013-07-16 21:25:00,83.1,58.3,29.35,South,181,4.9,4.9,43,0.00,,,0.00,VWS V13.01,2013-07-17 02:25:00,
2013-07-16 21:26:00,83.1,58.3,29.35,South,181,5.4,5.4,43,0.00,,,0.00,VWS V13.01,2013-07-17 02:26:00,
2013-07-16 21:27:00,82.9,58.2,29.35,South,181,4.9,4.9,43,0.00,,,0.00,VWS V13.01,2013-07-17 02:27:00,
2013-07-16 21:28:00,82.9,58.2,29.35,South,181,4.9,4.9,43,0.00,,,0.00,VWS V13.01,2013-07-17 02:28:00,
2013-07-16 21:30:00,82.9,58.2,29.35,South,181,4.0,4.0,43,0.00,,,0.00,VWS V13.01,2013-07-17 02:30:00,
2013-07-16 21:31:00,82.8,58.0,29.35,South,181,4.9,4.9,43,0.00,,,0.00,VWS V13.01,2013-07-17 02:31:00,
2013-07-16 21:32:00,82.8,58.0,29.35,South,181,4.9,4.9,43,0.00,,,0.00,VWS V13.01,2013-07-17 02:32:00,
2013-07-16 21:34:00,82.8,58.0,29.35,South,181,4.0,4.0,43,0.00,,,0.00,VWS V13.01,2013-07-17 02:34:00,
2013-07-16 21:35:00,82.6,57.8,29.35,South,181,4.9,4.9,43,0.00,,,0.00,VWS V13.01,2013-07-17 02:35:00,
2013-07-16 21:36:00,82.6,57.8,29.35,South,181,4.0,4.0,43,0.00,,,0.00,VWS V13.01,2013-07-17 02:36:00,
2013-07-16 21:37:00,82.6,57.8,29.35,South,181,3.6,3.6,43,0.00,,,0.00,VWS V13.01,2013-07-17 02:37:00,
2013-07-16 21:39:00,82.6,57.8,29.35,South,181,4.0,4.0,43,0.00,,,0.00,VWS V13.01,2013-07-17 02:39:00,
2013-07-16 21:40:00,82.4,57.7,29.35,South,181,4.0,4.0,43,0.00,,,0.00,VWS V13.01,2013-07-17 02:40:00,
2013-07-16 21:41:00,82.2,61.2,29.35,South,181,3.6,3.6,49,0.00,,,0.00,VWS V13.01,2013-07-17 02:41:00,
2013-07-16 21:42:00,82.2,61.2,29.35,South,181,4.0,4.0,49,0.00,,,0.00,VWS V13.01,2013-07-17 02:42:00,
2013-07-16 21:44:00,82.0,61.0,29.35,South,181,4.0,4.0,49,0.00,,,0.00,VWS V13.01,2013-07-17 02:44:00,
2013-07-16 21:45:00,82.0,61.0,29.35,South,181,4.0,4.0,49,0.00,,,0.00,VWS V13.01,2013-07-17 02:45:00,
2013-07-16 21:46:00,82.0,61.0,29.35,South,181,4.9,4.9,49,0.00,,,0.00,VWS V13.01,2013-07-17 02:46:00,
2013-07-16 21:47:00,81.9,60.8,29.35,South,181,4.9,4.9,49,0.00,,,0.00,VWS V13.01,2013-07-17 02:47:00,
2013-07-16 21:49:00,81.9,60.8,29.35,South,181,4.9,4.9,49,0.00,,,0.00,VWS V13.01,2013-07-17 02:49:00,
2013-07-16 21:50:00,81.9,60.8,29.35,South,181,3.6,3.6,49,0.00,,,0.00,VWS V13.01,2013-07-17 02:50:00,
2013-07-16 21:51:00,81.7,60.7,29.35,South,181,3.6,3.6,49,0.00,,,0.00,VWS V13.01,2013-07-17 02:51:00,
2013-07-16 21:52:00,81.9,60.8,29.35,South,181,4.9,4.9,49,0.00,,,0.00,VWS V13.01,2013-07-17 02:52:00,
2013-07-16 21:54:00,81.7,60.7,29.35,South,181,4.0,4.0,49,0.00,,,0.00,VWS V13.01,2013-07-17 02:54:00,
2013-07-16 21:55:00,81.7,60.7,29.35,South,181,3.6,3.6,49,0.00,,,0.00,VWS V13.01,2013-07-17 02:55:00,
2013-07-16 21:56:00,81.7,60.7,29.35,South,181,4.0,4.0,49,0.00,,,0.00,VWS V13.01,2013-07-17 02:56:00,
2013-07-16 21:57:00,81.5,60.5,29.35,South,181,4.0,4.0,49,0.00,,,0.00,VWS V13.01,2013-07-17 02:57:00,
2013-07-16 21:58:00,81.5,60.5,29.35,South,181,3.1,3.1,49,0.00,,,0.00,VWS V13.01,2013-07-17 02:58:00,
2013-07-16 21:59:00,81.5,60.5,29.35,South,181,2.7,2.7,49,0.00,,,0.00,VWS V13.01,2013-07-17 02:59:00,
2013-07-16 22:00:00,81.5,60.5,29.35,South,181,2.7,2.7,49,0.00,,,0.00,VWS V13.01,2013-07-17 03:00:00,
2013-07-16 22:01:00,81.7,60.7,29.35,South,181,4.0,4.0,49,0.00,,,0.00,VWS V13.01,2013-07-17 03:01:00,
2013-07-16 22:02:00,81.7,60.7,29.35,South,181,3.1,3.1,49,0.00,,,0.00,VWS V13.01,2013-07-17 03:02:00,
2013-07-16 22:03:00,81.7,60.7,29.35,South,181,3.6,3.6,49,0.00,,,0.00,VWS V13.01,2013-07-17 03:03:00,
2013-07-16 22:04:00,81.7,60.7,29.35,South,181,4.0,4.0,49,0.00,,,0.00,VWS V13.01,2013-07-17 03:04:00,
2013-07-16 22:05:00,81.7,60.7,29.35,South,181,3.6,3.6,49,0.00,,,0.00,VWS V13.01,2013-07-17 03:05:00,
2013-07-16 22:06:00,81.9,60.8,29.35,South,181,4.0,4.0,49,0.00,,,0.00,VWS V13.01,2013-07-17 03:06:00,
2013-07-16 22:07:00,81.7,60.7,29.35,South,180,4.5,4.5,49,0.00,,,0.00,VWS V13.01,2013-07-17 03:07:00,
2013-07-16 22:08:00,81.7,60.7,29.35,South,180,4.0,4.0,49,0.00,,,0.00,VWS V13.01,2013-07-17 03:08:00,
2013-07-16 22:09:00,81.7,60.7,29.35,South,180,5.4,5.4,49,0.00,,,0.00,VWS V13.01,2013-07-17 03:09:00,
2013-07-16 22:10:00,81.7,60.7,29.35,South,182,5.4,5.4,49,0.00,,,0.00,VWS V13.01,2013-07-17 03:10:00,
2013-07-16 22:11:00,81.7,60.7,29.35,South,182,4.0,4.0,49,0.00,,,0.00,VWS V13.01,2013-07-17 03:11:00,
2013-07-16 22:12:00,81.7,60.7,29.35,South,182,4.0,4.0,49,0.00,,,0.00,VWS V13.01,2013-07-17 03:12:00,
2013-07-16 22:13:00,81.5,60.5,29.35,South,182,4.0,4.0,49,0.00,,,0.00,VWS V13.01,2013-07-17 03:13:00,
2013-07-16 22:14:00,81.5,60.5,29.35,South,189,4.9,4.9,49,0.00,,,0.00,VWS V13.01,2013-07-17 03:14:00,
2013-07-16 22:15:00,81.3,60.3,29.35,South,189,4.9,4.9,49,0.00,,,0.00,VWS V13.01,2013-07-17 03:15:00,
2013-07-16 22:17:00,81.3,60.3,29.35,South,189,4.5,4.5,49,0.00,,,0.00,VWS V13.01,2013-07-17 03:17:00,
2013-07-16 22:18:00,81.3,60.3,29.35,South,189,4.0,4.0,49,0.00,,,0.00,VWS V13.01,2013-07-17 03:18:00,
2013-07-16 22:19:00,81.3,60.3,29.35,South,187,4.0,4.0,49,0.00,,,0.00,VWS V13.01,2013-07-17 03:19:00,
2013-07-16 22:21:00,81.1,60.2,29.35,South,187,4.0,4.0,49,0.00,,,0.00,VWS V13.01,2013-07-17 03:21:00,
2013-07-16 22:22:00,81.1,60.2,29.35,South,187,4.0,4.0,49,0.00,,,0.00,VWS V13.01,2013-07-17 03:22:00,
2013-07-16 22:23:00,81.0,60.0,29.35,South,187,4.5,4.5,49,0.00,,,0.00,VWS V13.01,2013-07-17 03:23:00,
2013-07-16 22:24:00,81.0,60.0,29.35,South,187,4.0,4.0,49,0.00,,,0.00,VWS V13.01,2013-07-17 03:24:00,
2013-07-16 22:26:00,80.8,59.9,29.35,South,187,4.0,4.0,49,0.00,,,0.00,VWS V13.01,2013-07-17 03:26:00,
2013-07-16 22:27:00,80.8,59.9,29.35,South,187,4.0,4.0,49,0.00,,,0.00,VWS V13.01,2013-07-17 03:27:00,
2013-07-16 22:28:00,80.8,59.9,29.35,South,187,4.0,4.0,49,0.00,,,0.00,VWS V13.01,2013-07-17 03:28:00,
2013-07-16 22:29:00,80.6,59.7,29.35,South,187,0.0,0.0,49,0.00,,,0.00,VWS V13.01,2013-07-17 03:29:00,
2013-07-16 22:31:00,80.6,59.7,29.35,South,187,0.0,0.0,49,0.00,,,0.00,VWS V13.01,2013-07-17 03:31:00,
2013-07-16 22:32:00,80.6,59.7,29.35,South,187,0.0,0.0,49,0.00,,,0.00,VWS V13.01,2013-07-17 03:32:00,
2013-07-16 22:33:00,80.6,59.7,29.35,South,187,0.0,0.0,49,0.00,,,0.00,VWS V13.01,2013-07-17 03:33:00,
2013-07-16 22:34:00,80.6,59.7,29.35,South,187,0.0,0.0,49,0.00,,,0.00,VWS V13.01,2013-07-17 03:34:00,
2013-07-16 22:36:00,80.6,59.7,29.35,South,187,0.0,0.0,49,0.00,,,0.00,VWS V13.01,2013-07-17 03:36:00,
2013-07-16 22:37:00,80.6,59.7,29.35,South,187,0.0,0.0,49,0.00,,,0.00,VWS V13.01,2013-07-17 03:37:00,
2013-07-16 22:38:00,80.6,59.7,29.35,South,187,0.0,0.0,49,0.00,,,0.00,VWS V13.01,2013-07-17 03:38:00,
2013-07-16 22:40:00,80.6,59.7,29.35,South,187,0.0,0.0,49,0.00,,,0.00,VWS V13.01,2013-07-17 03:40:00,
2013-07-16 22:41:00,80.4,59.5,29.35,South,187,0.0,0.0,49,0.00,,,0.00,VWS V13.01,2013-07-17 03:41:00,
2013-07-16 22:42:00,80.4,59.5,29.35,South,187,0.0,0.0,49,0.00,,,0.00,VWS V13.01,2013-07-17 03:42:00,
2013-07-16 22:43:00,80.4,59.5,29.35,South,187,0.0,0.0,49,0.00,,,0.00,VWS V13.01,2013-07-17 03:43:00,
2013-07-16 22:45:00,80.2,59.4,29.35,South,187,0.0,0.0,49,0.00,,,0.00,VWS V13.01,2013-07-17 03:45:00,
2013-07-16 22:46:00,80.1,59.2,29.35,South,187,0.0,0.0,49,0.00,,,0.00,VWS V13.01,2013-07-17 03:46:00,
2013-07-16 22:47:00,80.1,59.2,29.35,South,187,0.0,0.0,49,0.00,,,0.00,VWS V13.01,2013-07-17 03:47:00,
2013-07-16 22:48:00,79.9,59.0,29.35,South,187,0.0,0.0,49,0.00,,,0.00,VWS V13.01,2013-07-17 03:48:00,
2013-07-16 22:50:00,79.7,58.9,29.35,South,187,0.0,0.0,49,0.00,,,0.00,VWS V13.01,2013-07-17 03:50:00,
2013-07-16 22:51:00,79.5,58.7,29.35,South,187,0.0,0.0,49,0.00,,,0.00,VWS V13.01,2013-07-17 03:51:00,
2013-07-16 22:52:00,79.5,58.7,29.35,South,187,0.0,0.0,49,0.00,,,0.00,VWS V13.01,2013-07-17 03:52:00,
2013-07-16 22:53:00,79.3,58.5,29.35,South,187,0.0,0.0,49,0.00,,,0.00,VWS V13.01,2013-07-17 03:53:00,
2013-07-16 22:54:00,79.3,58.5,29.35,South,187,0.0,0.0,49,0.00,,,0.00,VWS V13.01,2013-07-17 03:54:00,
2013-07-16 22:55:00,79.3,58.5,29.38,South,187,0.0,0.0,49,0.00,,,0.00,VWS V13.01,2013-07-17 03:55:00,
2013-07-16 22:56:00,79.0,58.2,29.38,South,187,0.0,0.0,49,0.00,,,0.00,VWS V13.01,2013-07-17 03:56:00,
2013-07-16 22:57:00,78.8,58.0,29.38,South,187,0.0,0.0,49,0.00,,,0.00,VWS V13.01,2013-07-17 03:57:00,
2013-07-16 22:58:00,78.8,58.0,29.38,South,187,0.0,0.0,49,0.00,,,0.00,VWS V13.01,2013-07-17 03:58:00,
2013-07-16 22:59:00,78.8,58.0,29.38,South,187,0.0,0.0,49,0.00,,,0.00,VWS V13.01,2013-07-17 03:59:00,
2013-07-16 23:00:00,78.6,61.1,29.38,South,187,0.0,0.0,55,0.00,,,0.00,VWS V13.01,2013-07-17 04:00:00,
2013-07-16 23:01:00,78.6,61.1,29.38,South,187,0.0,0.0,55,0.00,,,0.00,VWS V13.01,2013-07-17 04:01:00,
2013-07-16 23:06:00,78.3,60.8,29.38,South,187,0.0,0.0,55,0.00,,,0.00,VWS V13.01,2013-07-17 04:06:00,
2013-07-16 23:11:00,78.1,60.6,29.35,South,187,0.0,0.0,55,0.00,,,0.00,VWS V13.01,2013-07-17 04:11:00,
2013-07-16 23:16:00,77.7,60.3,29.35,South,187,0.0,0.0,55,0.00,,,0.00,VWS V13.01,2013-07-17 04:16:00,
2013-07-16 23:21:00,77.5,60.1,29.35,South,187,0.0,0.0,55,0.00,,,0.00,VWS V13.01,2013-07-17 04:21:00,
2013-07-16 23:26:00,77.7,60.3,29.38,South,187,0.0,0.0,55,0.00,,,0.00,VWS V13.01,2013-07-17 04:26:00,
2013-07-16 23:31:00,78.1,60.6,29.38,South,187,0.0,0.0,55,0.00,,,0.00,VWS V13.01,2013-07-17 04:31:00,
2013-07-16 23:36:00,78.3,60.8,29.38,South,187,0.0,0.0,55,0.00,,,0.00,VWS V13.01,2013-07-17 04:36:00,
2013-07-16 23:41:00,78.8,58.0,29.38,South,187,0.0,0.0,49,0.00,,,0.00,VWS V13.01,2013-07-17 04:41:00,
2013-07-16 23:42:00,78.6,61.1,29.38,South,187,0.0,0.0,55,0.00,,,0.00,VWS V13.01,2013-07-17 04:42:00,
2013-07-16 23:46:00,78.4,61.0,29.38,South,187,0.0,0.0,55,0.00,,,0.00,VWS V13.01,2013-07-17 04:46:00,
2013-07-16 23:47:00,78.4,61.0,29.38,South,187,0.0,0.0,55,0.00,,,0.00,VWS V13.01,2013-07-17 04:47:00,
2013-07-16 23:51:00,78.3,60.8,29.38,South,187,0.0,0.0,55,0.00,,,0.00,VWS V13.01,2013-07-17 04:51:00,
2013-07-16 23:52:00,78.3,60.8,29.38,South,187,0.0,0.0,55,0.00,,,0.00,VWS V13.01,2013-07-17 04:52:00,
2013-07-16 23:55:00,78.1,60.6,29.38,South,187,0.0,0.0,55,0.00,,,0.00,VWS V13.01,2013-07-17 04:55:00,
2013-07-16 23:56:00,78.1,60.6,29.38,South,187,0.0,0.0,55,0.00,,,0.00,VWS V13.01,2013-07-17 04:56:00,
2013-07-16 23:59:00,78.1,60.6,29.38,South,187,0.0,0.0,55,0.00,,,0.00,VWS V13.01,2013-07-17 04:59:00,